I3LPO-3 Weather Reports


Display with metric or nautical units.
time (UTC)temp
F
wind
direction
speed
MPH
gust
MPH
rain 1hr
in
rain 24hr
in
rain mn
in
humidity
%
barometer
mb
20191024040603 54 0 0.0 3.0 0.00 0.01 0.01 92 1013.3
20191024040503 54 0 0.0 3.0 0.00 0.01 0.01 92 1013.4
20191024040403 54 0 0.0 3.0 0.00 0.01 0.01 92 1013.4
20191024040303 54 0 0.0 3.0 0.00 0.01 0.01 92 1013.2
20191024040203 54 0 0.0 3.0 0.00 0.01 0.01 92 1013.3
20191024040104 54 0 0.0 3.0 0.00 0.01 0.01 92 1013.3
20191024040003 54 0 0.0 3.0 0.00 0.01 0.01 92 1013.3
20191024035903 54 272 1.0 3.0 0.00 0.01 0.01 90 1013.4
20191024035803 54 273 2.0 3.0 0.00 0.01 0.01 90 1013.4
20191024035703 55 277 2.0 3.0 0.00 0.01 0.01 90 1013.4
20191024035603 55 283 2.0 3.0 0.00 0.01 0.01 90 1013.5
20191024035503 55 295 2.0 3.0 0.00 0.01 0.01 90 1013.4
20191024035403 55 298 2.0 3.0 0.00 0.01 0.01 90 1013.4
20191024035303 55 0 0.0 3.0 0.00 0.01 0.01 90 1013.2
20191024035203 55 0 0.0 3.0 0.00 0.01 0.01 90 1013.5
20191024035103 55 0 0.0 3.0 0.00 0.01 0.01 90 1013.3
20191024035003 55 0 0.0 3.0 0.00 0.01 0.01 90 1013.3
20191024034903 55 0 0.0 3.0 0.00 0.01 0.01 90 1013.4
20191024034803 55 288 1.0 3.0 0.00 0.01 0.01 90 1013.6
20191024034703 55 286 2.0 3.0 0.00 0.01 0.01 90 1013.4
20191024034603 55 285 2.0 3.0 0.00 0.01 0.01 90 1013.5
20191024034503 55 279 2.0 3.0 0.00 0.01 0.01 90 1013.5
20191024034403 55 281 2.0 3.0 0.00 0.01 0.01 90 1013.5
20191024034303 55 293 2.0 3.0 0.00 0.01 0.01 90 1013.4
20191024034203 55 306 2.0 2.0 0.00 0.01 0.01 90 1013.5
20191024034103 55 0 0.0 2.0 0.00 0.01 0.01 90 1013.3
20191024034003 55 0 0.0 2.0 0.00 0.01 0.01 90 1013.4
20191024033903 55 0 0.0 2.0 0.01 0.01 0.01 90 1013.5
20191024033803 55 0 0.0 2.0 0.01 0.01 0.01 90 1013.5
20191024033703 55 0 0.0 2.0 0.01 0.01 0.01 90 1013.4
20191024033603 55 331 1.0 2.0 0.01 0.01 0.01 90 1013.6
20191024033503 55 331 1.0 2.0 0.01 0.01 0.01 90 1013.6
20191024033403 55 333 1.0 2.0 0.01 0.01 0.01 90 1013.5
20191024033303 55 335 1.0 2.0 0.01 0.01 0.01 90 1013.7
20191024033203 55 338 1.0 2.0 0.01 0.01 0.01 90 1013.7
20191024033103 55 344 1.0 2.0 0.01 0.01 0.01 90 1013.7
20191024033003 55 346 1.0 2.0 0.01 0.01 0.01 89 1013.6
20191024032903 55 341 2.0 2.0 0.01 0.01 0.01 89 1013.5
20191024032803 55 330 2.0 2.0 0.01 0.01 0.01 89 1013.6
20191024032703 55 315 2.0 2.0 0.01 0.01 0.01 89 1013.7
20191024032603 55 27 1.0 2.0 0.01 0.01 0.01 89 1013.7
20191024032504 55 0 0.0 1.0 0.01 0.01 0.01 89 1013.7
20191024032403 55 0 0.0 1.0 0.01 0.01 0.01 89 1013.6
20191024032303 55 0 0.0 1.0 0.01 0.01 0.01 89 1013.6
20191024032203 55 0 0.0 1.0 0.01 0.01 0.01 89 1013.7
20191024032103 55 0 0.0 1.0 0.01 0.01 0.01 89 1013.7
20191024032003 55 0 0.0 1.0 0.01 0.01 0.01 88 1013.6
20191024031903 55 0 0.0 1.0 0.01 0.01 0.01 88 1013.7
20191024031803 55 0 0.0 2.0 0.01 0.01 0.01 88 1013.7
20191024031703 55 0 0.0 2.0 0.01 0.01 0.01 88 1013.7
20191024031603 55 0 0.0 2.0 0.01 0.01 0.01 88 1013.7
20191024031504 55 0 0.0 2.0 0.01 0.01 0.01 88 1013.7
20191024031404 55 0 0.0 2.0 0.01 0.01 0.01 88 1013.7
20191024031304 55 0 0.0 2.0 0.01 0.01 0.01 88 1013.9
20191024031204 55 0 0.0 2.0 0.01 0.01 0.01 89 1013.9
20191024031104 55 0 0.0 2.0 0.01 0.01 0.01 89 1013.7
20191024031004 55 0 0.0 2.0 0.01 0.01 0.01 89 1013.8
20191024030904 55 270 1.0 2.0 0.01 0.01 0.01 89 1013.9
20191024030804 55 270 1.0 2.0 0.01 0.01 0.01 89 1013.7
20191024030703 55 270 1.0 3.0 0.01 0.01 0.01 89 1013.7
20191024030604 55 270 2.0 3.0 0.01 0.01 0.01 89 1013.9
20191024030504 55 0 0.0 4.0 0.01 0.01 0.01 89 1013.9
20191024030405 55 0 0.0 4.0 0.01 0.01 0.01 89 1013.7
20191024030303 55 0 0.0 4.0 0.01 0.01 0.01 89 1013.8
20191024030204 55 0 0.0 4.0 0.01 0.01 0.01 89 1013.9
20191024030104 55 0 0.0 4.0 0.01 0.01 0.01 89 1013.8
20191024030003 55 0 0.0 4.0 0.01 0.01 0.01 89 1013.8
20191024025904 55 270 1.0 4.0 0.01 0.01 0.01 89 1013.9
20191024025804 55 270 1.0 4.0 0.01 0.01 0.01 89 1013.9
20191024025704 55 270 2.0 4.0 0.01 0.01 0.01 88 1013.8
20191024025604 55 270 2.0 4.0 0.01 0.01 0.01 88 1013.9
20191024025504 55 270 3.0 4.0 0.01 0.01 0.01 89 1013.8
20191024025403 55 264 2.0 3.0 0.01 0.01 0.01 89 1013.8
20191024025304 56 0 0.0 2.0 0.01 0.01 0.01 89 1013.8
20191024025204 56 0 0.0 2.0 0.01 0.01 0.01 89 1013.9
20191024025104 56 0 0.0 2.0 0.01 0.01 0.01 89 1013.9
20191024025005 56 0 0.0 2.0 0.01 0.01 0.01 89 1013.9
20191024024904 56 0 0.0 2.0 0.01 0.01 0.01 89 1013.8
20191024024803 56 0 0.0 2.0 0.01 0.01 0.01 89 1013.9
20191024024704 56 290 1.0 2.0 0.01 0.01 0.01 89 1014.0
20191024024604 56 290 1.0 2.0 0.01 0.01 0.01 89 1013.9
20191024024504 56 289 1.0 2.0 0.01 0.01 0.01 89 1013.9
20191024024404 56 0 0.0 2.0 0.01 0.01 0.01 89 1014.0
20191024024304 56 0 0.0 2.0 0.01 0.01 0.01 88 1013.9
20191024024204 56 0 0.0 2.0 0.01 0.01 0.01 88 1014.0
20191024024104 56 284 2.0 2.0 0.01 0.01 0.01 88 1014.1
20191024024004 55 277 2.0 2.0 0.01 0.01 0.01 88 1014.0
20191024023904 55 270 2.0 2.0 0.00 0.00 0.00 88 1014.0
20191024023804 55 266 2.0 2.0 0.00 0.00 0.00 87 1014.1
20191024023704 55 264 1.0 2.0 0.00 0.00 0.00 87 1013.9
20191024023604 55 270 2.0 2.0 0.00 0.00 0.00 87 1014.1
20191024023504 55 283 2.0 2.0 0.00 0.00 0.00 87 1014.1
20191024023404 55 304 2.0 2.0 0.00 0.00 0.00 87 1014.0
20191024023304 56 0 0.0 2.0 0.00 0.00 0.00 87 1013.9
20191024023204 56 321 1.0 2.0 0.00 0.00 0.00 87 1014.1
20191024023104 56 324 1.0 2.0 0.00 0.00 0.00 88 1014.0
20191024023004 56 331 1.0 2.0 0.00 0.00 0.00 88 1014.0
20191024022904 56 0 0.0 2.0 0.00 0.00 0.00 88 1014.0
20191024022804 56 0 0.0 2.0 0.00 0.00 0.00 88 1014.0
20191024022704 56 333 1.0 2.0 0.00 0.00 0.00 88 1014.0
20191024022604 56 316 1.0 2.0 0.00 0.00 0.00 88 1014.0
20191024022503 56 303 1.0 2.0 0.00 0.00 0.00 88 1013.9
20191024022404 56 294 1.0 2.0 0.00 0.00 0.00 88 1014.0
20191024022304 56 289 1.0 2.0 0.00 0.00 0.00 87 1014.0
20191024022204 56 286 1.0 2.0 0.00 0.00 0.00 87 1014.0
20191024022104 56 286 1.0 2.0 0.00 0.00 0.00 87 1014.1
20191024022004 56 288 1.0 2.0 0.00 0.00 0.00 87 1014.0
20191024021904 56 286 1.0 2.0 0.00 0.00 0.00 87 1013.9
20191024021804 56 288 1.0 2.0 0.00 0.00 0.00 87 1014.0
20191024021704 56 286 2.0 2.0 0.00 0.00 0.00 87 1014.1
20191024021604 56 284 2.0 2.0 0.00 0.00 0.00 87 1014.1
20191024021504 56 288 1.0 2.0 0.00 0.00 0.00 87 1013.9
20191024021404 56 293 1.0 2.0 0.00 0.00 0.00 86 1013.9
20191024021304 56 298 1.0 2.0 0.00 0.00 0.00 86 1014.1
20191024021204 56 303 1.0 2.0 0.00 0.00 0.00 86 1014.0
20191024021104 56 0 0.0 2.0 0.00 0.00 0.00 86 1014.1
20191024021004 56 0 0.0 2.0 0.00 0.00 0.00 86 1013.9
20191024020904 56 307 1.0 2.0 0.00 0.00 0.00 86 1014.0
20191024020804 56 303 1.0 3.0 0.00 0.00 0.00 86 1013.9
20191024020704 56 299 1.0 3.0 0.00 0.00 0.00 86 1014.0
20191024020604 56 298 2.0 3.0 0.00 0.00 0.00 86 1013.9
20191024020504 56 295 1.0 3.0 0.00 0.00 0.00 86 1013.9
20191024020404 56 291 1.0 3.0 0.00 0.00 0.00 86 1014.0
20191024020304 56 287 1.0 3.0 0.00 0.00 0.00 86 1014.0
20191024020204 56 285 1.0 3.0 0.00 0.00 0.00 86 1014.0
20191024020104 56 284 1.0 3.0 0.00 0.00 0.00 86 1014.0
20191024020004 56 283 1.0 3.0 0.00 0.00 0.00 86 1013.9
20191024015904 56 287 2.0 3.0 0.00 0.00 0.00 86 1014.0
20191024015804 56 301 2.0 3.0 0.00 0.00 0.00 86 1013.9
20191024015704 56 313 2.0 2.0 0.00 0.00 0.00 86 1013.9
20191024015604 56 317 2.0 2.0 0.00 0.00 0.00 87 1013.9
20191024015504 56 0 0.0 2.0 0.00 0.00 0.00 87 1013.9
20191024015404 56 0 0.0 2.0 0.00 0.00 0.00 87 1014.0
20191024015304 56 329 1.0 2.0 0.00 0.00 0.00 87 1013.9
20191024015204 56 311 1.0 2.0 0.00 0.00 0.00 87 1014.0
20191024015104 56 0 0.0 2.0 0.00 0.00 0.00 87 1013.9
20191024015004 56 298 1.0 2.0 0.00 0.00 0.00 87 1013.9
20191024014904 56 286 2.0 2.0 0.00 0.00 0.00 87 1013.9
20191024014804 56 276 1.0 2.0 0.00 0.00 0.00 87 1013.9
20191024014704 56 278 1.0 2.0 0.00 0.00 0.00 87 1013.9
20191024014604 56 281 1.0 2.0 0.00 0.00 0.00 87 1013.8
20191024014504 56 274 1.0 2.0 0.00 0.00 0.00 87 1014.0
20191024014404 56 271 1.0 2.0 0.00 0.00 0.00 87 1014.0
20191024014304 56 271 1.0 2.0 0.00 0.00 0.00 87 1013.9
20191024014204 56 277 1.0 2.0 0.00 0.00 0.00 87 1013.9
20191024014104 56 277 1.0 2.0 0.00 0.00 0.00 87 1013.9
20191024014004 56 279 1.0 2.0 0.00 0.00 0.00 87 1013.9
20191024013904 56 289 1.0 2.0 0.00 0.00 0.00 87 1013.8
20191024013804 56 298 1.0 2.0 0.00 0.00 0.00 87 1014.0
20191024013704 56 287 1.0 2.0 0.00 0.00 0.00 87 1013.9
20191024013604 56 280 2.0 2.0 0.00 0.00 0.00 87 1014.0
20191024013504 56 278 2.0 2.0 0.00 0.01 0.00 87 1013.9
20191024013404 56 281 2.0 2.0 0.00 0.01 0.00 87 1014.0
20191024013304 56 288 1.0 2.0 0.00 0.01 0.00 87 1013.9
20191024013204 56 0 0.0 3.0 0.00 0.01 0.00 87 1013.9
20191024013104 56 0 0.0 4.0 0.00 0.01 0.00 87 1013.9
20191024013004 56 278 1.0 4.0 0.00 0.01 0.00 87 1013.9
20191024012904 56 273 1.0 4.0 0.00 0.01 0.00 87 1014.0
20191024012804 56 270 1.0 4.0 0.00 0.01 0.00 87 1014.0
20191024012704 56 270 1.0 4.0 0.00 0.01 0.00 87 1014.0
20191024012617 56 271 1.0 4.0 0.00 0.01 0.00 87 1014.0
20191024012504 56 272 1.0 4.0 0.00 0.01 0.00 87 1014.0
20191024012404 56 273 1.0 4.0 0.00 0.01 0.00 87 1014.0
20191024012304 56 273 2.0 4.0 0.00 0.01 0.00 86 1013.9
20191024012203 56 278 2.0 4.0 0.00 0.01 0.00 86 1014.0
20191024012104 56 283 3.0 4.0 0.00 0.01 0.00 86 1014.0
20191024012004 56 284 3.0 4.0 0.00 0.01 0.00 86 1013.9
20191024011904 56 288 3.0 4.0 0.00 0.01 0.00 85 1014.0
20191024011804 56 297 3.0 4.0 0.00 0.01 0.00 85 1014.0
20191024011704 56 0 0.0 2.0 0.00 0.01 0.00 85 1014.1
20191024011604 56 0 0.0 2.0 0.00 0.01 0.00 85 1014.0
20191024011504 56 0 0.0 2.0 0.00 0.01 0.00 85 1014.0
20191024011404 56 0 0.0 2.0 0.00 0.01 0.00 85 1014.0
20191024011304 56 0 0.0 2.0 0.00 0.01 0.00 85 1014.1
20191024011204 56 280 1.0 2.0 0.00 0.01 0.00 85 1014.1
20191024011103 56 270 2.0 2.0 0.00 0.01 0.00 84 1014.0
20191024011004 56 270 1.0 2.0 0.00 0.01 0.00 84 1014.1
20191024010904 56 0 0.0 1.0 0.00 0.01 0.00 84 1014.1
20191024010804 56 0 0.0 2.0 0.00 0.01 0.00 84 1014.2
20191024010703 56 0 0.0 2.0 0.00 0.01 0.00 84 1014.1
20191024010603 56 0 0.0 2.0 0.00 0.01 0.00 84 1014.2
20191024010503 56 0 0.0 2.0 0.00 0.01 0.00 83 1014.3
20191024010404 56 0 0.0 2.0 0.00 0.01 0.00 83 1014.2
20191024010303 56 0 0.0 2.0 0.00 0.01 0.00 83 1014.0
20191024010204 56 0 0.0 2.0 0.00 0.01 0.00 83 1014.1
20191024010103 56 0 0.0 2.0 0.00 0.01 0.00 83 1014.1
20191024010004 56 0 0.0 2.0 0.00 0.01 0.00 83 1014.2
20191024005903 56 212 1.0 2.0 0.00 0.01 0.00 83 1014.1
20191024005804 56 202 1.0 2.0 0.00 0.01 0.00 83 1014.2
20191024005704 56 188 1.0 2.0 0.00 0.01 0.00 83 1014.2
20191024005603 56 0 0.0 2.0 0.00 0.01 0.00 83 1014.2
20191024005503 56 0 0.0 2.0 0.00 0.01 0.00 83 1014.1
20191024005403 56 0 0.0 2.0 0.00 0.01 0.00 83 1014.2
20191024005303 56 0 0.0 2.0 0.00 0.01 0.00 83 1014.2
20191024005204 56 0 0.0 2.0 0.00 0.01 0.00 83 1014.2
20191024005103 56 0 0.0 2.0 0.00 0.01 0.00 83 1014.2
20191024005004 56 0 0.0 2.0 0.00 0.01 0.00 83 1014.2
20191024004903 57 0 0.0 2.0 0.00 0.01 0.00 83 1014.2
20191024004803 57 253 1.0 2.0 0.00 0.01 0.00 83 1014.2
20191024004703 57 270 1.0 2.0 0.00 0.01 0.00 84 1014.2
20191024004603 57 282 1.0 2.0 0.00 0.01 0.00 84 1014.2
20191024004503 57 0 0.0 2.0 0.00 0.01 0.00 84 1014.3
20191024004403 57 0 0.0 3.0 0.00 0.01 0.00 84 1014.3
20191024004303 57 278 1.0 3.0 0.00 0.01 0.00 84 1014.2
20191024004204 57 279 1.0 3.0 0.00 0.01 0.00 84 1014.2
20191024004103 57 279 2.0 3.0 0.00 0.01 0.00 84 1014.3
20191024004003 57 283 2.0 3.0 0.00 0.01 0.00 84 1014.3
20191024003903 57 287 1.0 3.0 0.00 0.01 0.00 85 1014.4
20191024003803 57 291 1.0 3.0 0.00 0.01 0.00 85 1014.3
20191024003703 57 288 2.0 3.0 0.00 0.01 0.00 85 1014.3
20191024003603 57 283 2.0 3.0 0.00 0.01 0.00 85 1014.1
20191024003503 57 284 2.0 3.0 0.00 0.01 0.00 85 1014.3
20191024003403 57 287 2.0 3.0 0.00 0.01 0.00 85 1014.2
20191024003303 56 293 1.0 2.0 0.00 0.01 0.00 85 1014.4
20191024003203 56 284 1.0 2.0 0.00 0.01 0.00 84 1014.4
20191024003103 56 275 1.0 2.0 0.00 0.01 0.00 84 1014.4
20191024003003 56 267 1.0 2.0 0.00 0.01 0.00 84 1014.3
20191024002903 56 251 2.0 2.0 0.00 0.01 0.00 84 1014.4
20191024002803 56 232 2.0 2.0 0.00 0.01 0.00 84 1014.3
20191024002703 56 232 1.0 2.0 0.00 0.01 0.00 84 1014.3
20191024002603 56 244 1.0 3.0 0.00 0.01 0.00 84 1014.4
20191024002503 56 0 0.0 3.0 0.00 0.01 0.00 84 1014.4
20191024002403 56 0 0.0 3.0 0.00 0.01 0.00 84 1014.3
20191024002303 56 0 0.0 3.0 0.00 0.01 0.00 84 1014.4
20191024002203 56 259 1.0 3.0 0.00 0.01 0.00 84 1014.4
20191024002103 56 0 0.0 3.0 0.00 0.01 0.00 83 1014.3
20191024002003 56 0 0.0 3.0 0.00 0.01 0.00 83 1014.4
20191024001903 56 263 2.0 3.0 0.00 0.01 0.00 83 1014.4
20191024001803 56 265 2.0 3.0 0.00 0.01 0.00 83 1014.4
20191024001703 56 266 2.0 3.0 0.00 0.01 0.00 83 1014.4
20191024001603 57 265 2.0 3.0 0.00 0.01 0.00 83 1014.4
20191024001503 57 264 2.0 3.0 0.00 0.01 0.00 83 1014.4
20191024001403 57 262 2.0 3.0 0.00 0.01 0.00 83 1014.5
20191024001303 57 259 1.0 3.0 0.00 0.01 0.00 82 1014.4
20191024001203 57 251 2.0 3.0 0.00 0.01 0.00 82 1014.5
20191024001103 57 187 2.0 3.0 0.00 0.01 0.00 82 1014.4
20191024001003 57 112 2.0 2.0 0.00 0.01 0.00 82 1014.4
20191024000903 57 98 1.0 2.0 0.00 0.01 0.00 82 1014.4
20191024000803 57 0 0.0 2.0 0.00 0.01 0.00 82 1014.4
20191024000703 57 0 0.0 2.0 0.00 0.01 0.00 81 1014.4
20191024000603 57 87 1.0 2.0 0.00 0.01 0.00 81 1014.6
20191024000503 58 91 1.0 2.0 0.00 0.01 0.00 81 1014.3
20191024000403 58 93 1.0 2.0 0.00 0.01 0.00 81 1014.3
20191024000303 58 145 1.0 2.0 0.00 0.01 0.00 81 1014.4
20191024000203 58 252 1.0 3.0 0.00 0.01 0.00 81 1014.4
20191024000103 58 261 1.0 3.0 0.00 0.01 0.00 81 1014.4
20191024000003 58 264 1.0 3.0 0.00 0.01 0.00 81 1014.3
20191023235903 58 0 0.0 4.0 0.00 0.01 0.00 81 1014.3
20191023235803 58 267 1.0 4.0 0.00 0.01 0.00 81 1014.3
20191023235703 58 266 1.0 4.0 0.00 0.01 0.00 81 1014.3
20191023235603 58 268 1.0 4.0 0.00 0.01 0.00 81 1014.4
20191023235503 58 270 2.0 4.0 0.00 0.01 0.00 81 1014.3
20191023235403 58 274 2.0 4.0 0.00 0.01 0.00 81 1014.3
20191023235303 58 275 2.0 4.0 0.00 0.01 0.00 81 1014.2
20191023235203 58 278 2.0 4.0 0.00 0.01 0.00 81 1014.1
20191023235103 58 279 2.0 4.0 0.00 0.01 0.00 81 1014.3
20191023235003 58 279 2.0 4.0 0.00 0.01 0.00 81 1014.2
20191023234903 58 277 2.0 4.0 0.00 0.01 0.00 82 1014.2
20191023234803 58 275 2.0 4.0 0.00 0.01 0.00 82 1014.2
20191023234703 58 275 4.0 4.0 0.00 0.01 0.00 82 1014.1
20191023234603 58 274 3.0 4.0 0.00 0.01 0.00 82 1014.2
20191023234503 58 273 2.0 4.0 0.00 0.01 0.00 82 1014.1
20191023234403 58 270 2.0 4.0 0.00 0.01 0.00 82 1014.1
20191023234303 58 272 2.0 4.0 0.00 0.01 0.00 82 1014.2
20191023234203 58 270 4.0 4.0 0.00 0.01 0.00 82 1014.1
20191023234103 58 267 4.0 4.0 0.00 0.01 0.00 83 1014.1
20191023234003 58 266 3.0 4.0 0.00 0.01 0.00 83 1014.0
20191023233903 58 271 3.0 4.0 0.00 0.01 0.00 83 1014.0
20191023233803 58 274 3.0 4.0 0.00 0.01 0.00 83 1014.1
20191023233703 58 274 2.0 4.0 0.00 0.01 0.00 84 1014.1
20191023233603 58 273 2.0 4.0 0.00 0.01 0.00 84 1014.2
20191023233503 58 273 4.0 4.0 0.00 0.01 0.00 84 1014.2
20191023233403 58 274 2.0 3.0 0.00 0.01 0.00 84 1014.1
20191023233303 58 269 2.0 3.0 0.00 0.01 0.00 84 1014.2
20191023233203 58 266 2.0 3.0 0.00 0.01 0.00 84 1014.1
20191023233103 57 263 2.0 3.0 0.00 0.01 0.00 84 1014.2
20191023233003 57 261 2.0 3.0 0.00 0.01 0.00 83 1014.2
20191023232903 57 154 2.0 2.0 0.00 0.01 0.00 83 1014.1
20191023232803 57 0 0.0 2.0 0.00 0.01 0.00 83 1014.2
20191023232703 57 116 1.0 2.0 0.00 0.01 0.00 83 1014.1
20191023232603 57 0 0.0 2.0 0.00 0.01 0.00 83 1014.2
20191023232503 58 0 0.0 2.0 0.00 0.01 0.00 83 1014.2
20191023232403 58 0 0.0 3.0 0.00 0.01 0.00 83 1014.1
20191023232303 58 0 0.0 3.0 0.00 0.01 0.00 83 1014.1
20191023232203 58 278 1.0 3.0 0.00 0.01 0.00 83 1014.2
20191023232103 58 277 1.0 3.0 0.00 0.01 0.00 83 1014.3
20191023232003 58 276 1.0 3.0 0.00 0.01 0.00 83 1014.3
20191023231904 58 0 0.0 3.0 0.00 0.01 0.00 83 1014.1
20191023231804 58 0 0.0 3.0 0.00 0.01 0.00 83 1014.3
20191023231704 58 274 1.0 3.0 0.00 0.01 0.00 83 1014.4
20191023231604 58 275 2.0 4.0 0.00 0.01 0.00 83 1014.5
20191023231504 58 273 1.0 4.0 0.00 0.01 0.00 83 1014.5
20191023231404 58 278 2.0 4.0 0.00 0.01 0.00 83 1014.4
20191023231304 58 281 2.0 4.0 0.00 0.01 0.00 83 1014.5
20191023231204 58 284 1.0 4.0 0.00 0.01 0.00 83 1014.4
20191023231104 58 284 2.0 4.0 0.00 0.01 0.00 84 1014.4
20191023231004 58 289 3.0 4.0 0.00 0.01 0.00 84 1014.3
20191023230904 58 289 2.0 4.0 0.00 0.01 0.00 84 1014.3
20191023230804 58 289 2.0 4.0 0.00 0.01 0.00 84 1014.3
20191023230704 58 292 2.0 4.0 0.00 0.01 0.00 84 1014.4
20191023230604 58 289 2.0 4.0 0.00 0.01 0.00 84 1014.3
20191023230504 58 285 1.0 4.0 0.00 0.01 0.00 84 1014.3
20191023230405 58 283 1.0 4.0 0.00 0.01 0.00 84 1014.4
20191023230304 58 279 1.0 4.0 0.00 0.01 0.00 84 1014.3
20191023230204 58 278 1.0 4.0 0.00 0.01 0.00 84 1014.2
20191023230105 58 273 2.0 4.0 0.00 0.01 0.00 84 1014.3
20191023230005 58 249 2.0 4.0 0.00 0.01 0.00 84 1014.1
20191023225904 58 242 2.0 4.0 0.00 0.01 0.00 84 1014.3
20191023225804 58 240 3.0 4.0 0.00 0.01 0.00 84 1014.1
20191023225704 58 231 2.0 3.0 0.00 0.01 0.00 84 1014.2
20191023225604 58 206 2.0 3.0 0.00 0.01 0.00 85 1014.3
20191023225504 58 184 1.0 3.0 0.00 0.01 0.00 85 1014.2
20191023225404 58 0 0.0 3.0 0.00 0.01 0.00 85 1014.2
20191023225304 58 171 1.0 3.0 0.00 0.01 0.00 85 1014.3
20191023225204 58 188 2.0 3.0 0.00 0.01 0.00 85 1014.4
20191023225103 58 211 2.0 3.0 0.00 0.01 0.00 85 1014.4
20191023225004 58 250 2.0 3.0 0.00 0.01 0.00 85 1014.3
20191023224904 58 260 2.0 2.0 0.00 0.01 0.00 85 1014.4
20191023224804 58 271 2.0 3.0 0.00 0.01 0.00 85 1014.3
20191023224704 58 269 1.0 3.0 0.00 0.01 0.00 85 1014.4
20191023224604 58 269 1.0 3.0 0.00 0.01 0.00 85 1014.4
20191023224504 58 0 0.0 3.0 0.00 0.01 0.00 86 1014.4
20191023224404 58 0 0.0 3.0 0.00 0.01 0.00 86 1014.4
20191023224304 58 284 1.0 3.0 0.00 0.01 0.00 86 1014.4
20191023224204 58 291 2.0 3.0 0.00 0.01 0.00 86 1014.2
20191023224104 58 298 2.0 3.0 0.00 0.01 0.00 86 1014.3
20191023224004 58 301 2.0 3.0 0.00 0.01 0.00 86 1014.3
20191023223904 58 301 2.0 3.0 0.00 0.01 0.00 86 1014.3
20191023223804 58 298 2.0 3.0 0.00 0.01 0.00 86 1014.3
20191023223705 57 298 2.0 2.0 0.00 0.01 0.00 86 1014.1
20191023223604 57 300 1.0 2.0 0.00 0.01 0.00 86 1014.3
20191023223504 57 292 1.0 2.0 0.00 0.01 0.00 86 1014.4
20191023223404 57 280 1.0 2.0 0.00 0.01 0.00 86 1014.3
20191023223304 57 275 1.0 4.0 0.00 0.01 0.00 85 1014.2
20191023223204 57 273 1.0 4.0 0.00 0.01 0.00 85 1014.2
20191023223104 57 265 1.0 4.0 0.00 0.01 0.00 85 1014.3
20191023223004 57 272 1.0 4.0 0.00 0.01 0.00 85 1014.3
20191023222904 57 281 1.0 4.0 0.00 0.01 0.00 85 1014.4
20191023222804 57 280 1.0 4.0 0.00 0.01 0.00 85 1014.3
20191023222704 57 0 0.0 4.0 0.00 0.01 0.00 85 1014.3
20191023222604 57 0 0.0 4.0 0.00 0.01 0.00 85 1014.3
20191023222504 57 0 0.0 4.0 0.00 0.01 0.00 85 1014.4
20191023222404 57 275 1.0 4.0 0.00 0.01 0.00 85 1014.3
20191023222303 57 276 3.0 4.0 0.00 0.01 0.00 85 1014.5
20191023222204 57 269 2.0 4.0 0.00 0.01 0.00 85 1014.4
20191023222104 58 271 1.0 4.0 0.00 0.01 0.00 85 1014.5
20191023222004 58 262 2.0 4.0 0.00 0.01 0.00 85 1014.3
20191023221904 58 253 3.0 4.0 0.00 0.01 0.00 86 1014.3
20191023221804 58 249 2.0 3.0 0.00 0.01 0.00 86 1014.5
20191023221704 58 255 2.0 3.0 0.00 0.01 0.00 86 1014.5
20191023221604 58 0 0.0 3.0 0.00 0.01 0.00 86 1014.4
20191023221504 58 0 0.0 3.0 0.00 0.01 0.00 86 1014.5
20191023221404 58 0 0.0 3.0 0.00 0.01 0.00 86 1014.5
20191023221304 58 264 2.0 3.0 0.00 0.01 0.00 87 1014.5
20191023221204 58 269 2.0 3.0 0.00 0.01 0.00 87 1014.4
20191023221104 58 271 2.0 3.0 0.00 0.01 0.00 87 1014.7
20191023221005 58 0 0.0 3.0 0.00 0.01 0.00 87 1014.5
20191023220904 58 272 1.0 3.0 0.00 0.01 0.00 87 1014.5
20191023220804 58 273 2.0 3.0 0.00 0.01 0.00 87 1014.5
20191023220704 58 269 2.0 3.0 0.00 0.01 0.00 87 1014.7
20191023220604 57 268 2.0 2.0 0.00 0.01 0.00 86 1014.6
20191023220504 57 266 2.0 2.0 0.00 0.01 0.00 86 1014.7
20191023220404 57 261 2.0 2.0 0.00 0.01 0.00 86 1014.6
20191023220304 57 255 2.0 2.0 0.00 0.01 0.00 86 1014.7
20191023220204 57 251 2.0 2.0 0.00 0.01 0.00 86 1014.8
20191023220104 57 247 2.0 2.0 0.00 0.01 0.00 86 1014.8
20191023220004 57 248 2.0 2.0 0.00 0.01 0.00 86 1014.8
20191023215904 57 249 1.0 2.0 0.00 0.01 0.01 86 1014.7
20191023215804 57 0 0.0 2.0 0.00 0.01 0.01 86 1014.7
20191023215704 57 0 0.0 2.0 0.00 0.01 0.01 86 1014.7
20191023215604 57 0 0.0 3.0 0.00 0.01 0.01 86 1014.7
20191023215504 57 266 1.0 3.0 0.00 0.01 0.01 86 1014.8
20191023215404 57 269 1.0 3.0 0.00 0.01 0.01 86 1014.7
20191023215304 58 0 0.0 4.0 0.00 0.01 0.01 87 1014.7
20191023215204 58 0 0.0 4.0 0.00 0.01 0.01 87 1014.7
20191023215104 58 0 0.0 4.0 0.00 0.01 0.01 87 1014.5
20191023215004 58 268 1.0 4.0 0.00 0.01 0.01 87 1014.8
20191023214904 58 267 1.0 4.0 0.00 0.01 0.01 87 1014.7
20191023214804 58 267 2.0 4.0 0.00 0.01 0.01 87 1014.7
20191023214704 58 266 2.0 4.0 0.00 0.01 0.01 87 1014.8
20191023214604 58 264 2.0 4.0 0.00 0.01 0.01 87 1014.8
20191023214504 58 263 3.0 4.0 0.00 0.01 0.01 87 1014.8
20191023214404 58 264 2.0 4.0 0.00 0.01 0.01 87 1014.8
20191023214304 58 270 2.0 4.0 0.00 0.01 0.01 87 1014.6
20191023214204 58 270 3.0 4.0 0.00 0.01 0.01 87 1014.8
20191023214104 58 0 0.0 3.0 0.00 0.01 0.01 87 1014.8
20191023214004 58 270 1.0 3.0 0.00 0.01 0.01 87 1014.6
20191023213904 58 270 1.0 3.0 0.00 0.01 0.01 87 1014.7
20191023213804 58 0 0.0 3.0 0.00 0.01 0.01 87 1014.8
20191023213704 58 0 0.0 3.0 0.00 0.01 0.01 87 1014.9
20191023213603 58 0 0.0 3.0 0.00 0.01 0.01 87 1014.8
20191023213504 58 0 0.0 3.0 0.00 0.01 0.01 87 1014.9
20191023213404 58 265 2.0 3.0 0.00 0.01 0.01 87 1014.8
20191023213304 58 263 3.0 3.0 0.00 0.01 0.01 87 1014.6
20191023213203 58 264 3.0 3.0 0.00 0.01 0.01 87 1014.8
20191023213104 58 266 2.0 3.0 0.00 0.01 0.01 87 1014.9
20191023213004 58 272 2.0 3.0 0.00 0.01 0.01 87 1014.8
20191023212904 58 273 2.0 3.0 0.00 0.01 0.01 87 1015.0
20191023212803 58 273 2.0 2.0 0.00 0.01 0.01 87 1015.0
20191023212704 58 272 2.0 2.0 0.00 0.01 0.01 87 1014.8
20191023212604 58 288 1.0 2.0 0.00 0.01 0.01 88 1015.0
20191023212503 58 0 0.0 2.0 0.00 0.01 0.01 88 1015.0
20191023212403 58 307 1.0 3.0 0.00 0.01 0.01 88 1015.0
20191023212304 58 0 0.0 3.0 0.00 0.01 0.01 88 1014.8
20191023212204 58 294 1.0 3.0 0.00 0.01 0.01 88 1014.9
20191023212103 58 283 1.0 3.0 0.00 0.01 0.01 88 1015.0
20191023212003 58 269 1.0 3.0 0.00 0.01 0.01 88 1014.9
20191023211904 58 266 2.0 3.0 0.00 0.01 0.01 88 1015.0
20191023211804 58 264 1.0 3.0 0.00 0.01 0.01 88 1014.9
20191023211703 58 258 1.0 3.0 0.00 0.01 0.01 88 1014.9
20191023211604 58 243 2.0 3.0 0.00 0.01 0.01 88 1015.0
20191023211504 58 229 2.0 3.0 0.00 0.01 0.01 87 1015.1
20191023211404 58 215 2.0 3.0 0.00 0.01 0.01 87 1015.0
20191023211303 58 206 2.0 2.0 0.00 0.01 0.01 87 1014.9
20191023211203 58 213 1.0 2.0 0.00 0.01 0.01 87 1014.8
20191023211104 58 218 1.0 2.0 0.00 0.01 0.01 87 1015.0
20191023211004 58 223 1.0 2.0 0.00 0.01 0.01 87 1015.0
20191023210903 58 0 0.0 2.0 0.00 0.01 0.01 88 1015.0
20191023210804 58 228 1.0 2.0 0.00 0.01 0.01 88 1015.0
20191023210704 58 234 1.0 2.0 0.00 0.01 0.01 88 1014.9
20191023210603 58 243 1.0 2.0 0.00 0.01 0.01 88 1015.0
20191023210503 58 253 1.0 2.0 0.00 0.01 0.01 88 1014.9
20191023210403 58 259 1.0 2.0 0.00 0.01 0.01 88 1015.0
20191023210303 58 263 1.0 2.0 0.00 0.01 0.01 88 1014.9
20191023210203 58 268 1.0 2.0 0.00 0.01 0.01 88 1015.0
20191023210103 58 273 1.0 2.0 0.00 0.01 0.01 88 1015.0
20191023210003 58 280 1.0 2.0 0.00 0.01 0.01 88 1015.1
20191023205904 58 289 1.0 2.0 0.00 0.01 0.01 88 1015.0
20191023205803 58 292 1.0 2.0 0.00 0.01 0.01 88 1015.0
20191023205704 58 287 1.0 2.0 0.00 0.01 0.01 88 1015.0
20191023205603 58 274 2.0 2.0 0.00 0.01 0.01 88 1015.0
20191023205503 58 259 2.0 2.0 0.00 0.01 0.01 88 1015.0
20191023205403 58 244 2.0 2.0 0.00 0.01 0.01 88 1015.1
20191023205303 58 0 0.0 1.0 0.00 0.01 0.01 88 1015.0
20191023205203 58 0 0.0 1.0 0.00 0.01 0.01 87 1015.1
20191023205103 58 0 0.0 1.0 0.00 0.01 0.01 87 1015.1
20191023205003 58 0 0.0 1.0 0.00 0.01 0.01 87 1015.1
20191023204903 58 0 0.0 1.0 0.00 0.01 0.01 87 1015.1
20191023204803 58 0 0.0 1.0 0.00 0.01 0.01 87 1015.1
20191023204703 58 0 0.0 1.0 0.00 0.01 0.01 87 1015.2
20191023204603 58 0 0.0 2.0 0.00 0.01 0.01 87 1015.1
20191023204504 58 0 0.0 2.0 0.00 0.01 0.01 87 1015.2
20191023204404 58 0 0.0 2.0 0.00 0.01 0.01 87 1015.3
20191023204303 58 0 0.0 2.0 0.00 0.01 0.01 87 1015.2
20191023204203 58 0 0.0 2.0 0.00 0.01 0.01 87 1015.3
20191023204103 58 0 0.0 2.0 0.00 0.01 0.01 87 1015.2
20191023204003 58 0 0.0 2.0 0.00 0.01 0.01 87 1015.2
20191023203903 58 281 1.0 2.0 0.00 0.01 0.01 87 1015.2
20191023203803 58 277 1.0 2.0 0.00 0.01 0.01 88 1015.1
20191023203703 58 276 1.0 2.0 0.00 0.01 0.01 88 1015.3
20191023203603 58 0 0.0 2.0 0.00 0.01 0.01 88 1015.1
20191023203503 58 287 1.0 2.0 0.00 0.01 0.01 88 1015.0
20191023203403 59 286 2.0 3.0 0.00 0.01 0.01 89 1015.3
20191023203303 59 0 0.0 3.0 0.00 0.01 0.01 89 1015.3
20191023203203 59 282 1.0 3.0 0.00 0.01 0.01 89 1015.3
20191023203103 59 277 1.0 3.0 0.00 0.01 0.01 89 1015.3
20191023203003 59 275 1.0 3.0 0.00 0.01 0.01 89 1015.3
20191023202903 59 0 0.0 3.0 0.00 0.01 0.01 89 1015.3
20191023202803 59 0 0.0 3.0 0.00 0.01 0.01 89 1015.2
20191023202703 59 0 0.0 3.0 0.00 0.01 0.01 89 1015.1
20191023202603 59 274 2.0 3.0 0.00 0.01 0.01 89 1015.2
20191023202503 58 270 2.0 3.0 0.00 0.01 0.01 88 1015.2
20191023202403 58 270 2.0 3.0 0.00 0.01 0.01 88 1015.2
20191023202303 58 270 2.0 3.0 0.00 0.01 0.01 88 1015.3
20191023202203 58 270 2.0 3.0 0.00 0.01 0.01 87 1015.3
20191023202103 58 270 2.0 3.0 0.00 0.01 0.01 87 1015.3
20191023202003 58 270 2.0 3.0 0.00 0.01 0.01 87 1015.2
20191023201903 58 270 2.0 3.0 0.00 0.01 0.01 87 1015.4
20191023201803 58 270 2.0 3.0 0.00 0.01 0.01 87 1015.3
20191023201703 58 0 0.0 2.0 0.00 0.01 0.01 87 1015.3
20191023201603 58 0 0.0 2.0 0.00 0.01 0.01 87 1015.3
20191023201503 58 274 1.0 2.0 0.00 0.01 0.01 87 1015.4
20191023201403 58 0 0.0 3.0 0.00 0.01 0.01 87 1015.3
20191023201303 58 0 0.0 3.0 0.00 0.01 0.01 87 1015.3
20191023201203 58 0 0.0 3.0 0.00 0.01 0.01 87 1015.2
20191023201103 58 273 2.0 3.0 0.00 0.01 0.01 87 1015.1
20191023201003 58 273 2.0 3.0 0.00 0.01 0.01 87 1015.1
20191023200903 58 271 2.0 3.0 0.00 0.01 0.01 87 1015.3
20191023200803 58 267 1.0 3.0 0.00 0.01 0.01 87 1015.3
20191023200703 58 265 1.0 3.0 0.00 0.01 0.01 87 1015.2
20191023200603 58 263 1.0 3.0 0.00 0.01 0.01 87 1015.2
20191023200503 58 260 2.0 3.0 0.00 0.01 0.01 87 1015.2
20191023200403 58 257 2.0 2.0 0.00 0.01 0.01 87 1015.3
20191023200303 58 256 2.0 2.0 0.00 0.01 0.01 87 1015.2
20191023200203 59 261 2.0 2.0 0.00 0.01 0.01 87 1015.3
20191023200103 59 269 2.0 2.0 0.00 0.01 0.01 87 1015.2
20191023200003 59 279 2.0 2.0 0.00 0.01 0.01 87 1015.3
20191023195903 59 285 2.0 2.0 0.00 0.01 0.01 88 1015.3
20191023195803 59 297 2.0 2.0 0.00 0.01 0.01 88 1015.2
20191023195703 59 0 0.0 2.0 0.00 0.01 0.01 88 1015.1
20191023195603 59 0 0.0 2.0 0.00 0.01 0.01 88 1015.1
20191023195503 59 0 0.0 2.0 0.00 0.01 0.01 88 1015.2
20191023195403 59 0 0.0 2.0 0.00 0.01 0.01 88 1015.1
20191023195303 59 288 1.0 2.0 0.00 0.01 0.01 88 1015.1
20191023195203 59 280 2.0 2.0 0.00 0.01 0.01 87 1015.2
20191023195103 59 274 2.0 2.0 0.00 0.01 0.01 87 1015.3
20191023195003 59 266 2.0 2.0 0.00 0.01 0.01 87 1015.2
20191023194903 59 0 0.0 2.0 0.00 0.01 0.01 87 1015.1
20191023194803 59 0 0.0 2.0 0.00 0.01 0.01 87 1015.3
20191023194703 59 0 0.0 2.0 0.00 0.01 0.01 87 1015.2
20191023194603 59 264 1.0 2.0 0.00 0.01 0.01 87 1015.3
20191023194503 59 0 0.0 2.0 0.00 0.01 0.01 87 1015.2
20191023194403 59 270 1.0 2.0 0.00 0.01 0.01 87 1015.2
20191023194303 59 278 1.0 2.0 0.00 0.01 0.01 88 1015.2
20191023194203 59 0 0.0 3.0 0.00 0.01 0.01 88 1015.3
20191023194103 59 0 0.0 3.0 0.00 0.01 0.01 88 1015.3
20191023194003 59 0 0.0 3.0 0.00 0.01 0.01 88 1015.3
20191023193903 59 277 2.0 3.0 0.00 0.01 0.01 88 1015.3
20191023193803 59 277 1.0 3.0 0.00 0.01 0.01 88 1015.3
20191023193703 59 278 1.0 3.0 0.00 0.01 0.01 88 1015.3
20191023193604 59 282 1.0 3.0 0.00 0.01 0.01 88 1015.2
20191023193504 59 284 1.0 3.0 0.00 0.01 0.01 87 1015.3
20191023193404 59 281 1.0 3.0 0.00 0.01 0.01 87 1015.2
20191023193304 59 279 2.0 3.0 0.00 0.01 0.01 87 1015.1
20191023193204 59 279 2.0 3.0 0.00 0.01 0.01 87 1015.3
20191023193104 59 277 2.0 2.0 0.00 0.01 0.01 87 1015.3
20191023193004 59 277 1.0 2.0 0.00 0.01 0.01 87 1015.2
20191023192904 59 278 1.0 2.0 0.00 0.01 0.01 87 1015.2
20191023192804 59 284 1.0 2.0 0.00 0.01 0.01 87 1015.2
20191023192703 59 288 1.0 2.0 0.00 0.01 0.01 87 1015.3
20191023192604 59 289 1.0 2.0 0.00 0.01 0.01 87 1015.3
20191023192504 59 292 2.0 2.0 0.00 0.01 0.01 88 1015.2
20191023192404 59 300 2.0 2.0 0.00 0.01 0.01 88 1015.2
20191023192305 59 307 2.0 2.0 0.00 0.01 0.01 88 1015.2
20191023192203 59 314 2.0 2.0 0.00 0.01 0.01 88 1015.1
20191023192105 60 0 0.0 2.0 0.00 0.01 0.01 88 1015.2
20191023192004 60 321 1.0 2.0 0.00 0.01 0.01 88 1015.3
20191023191904 60 325 1.0 2.0 0.00 0.01 0.01 88 1015.2
20191023191804 60 323 1.0 2.0 0.00 0.01 0.01 87 1015.3
20191023191704 59 332 2.0 2.0 0.00 0.01 0.01 87 1015.3
20191023191604 59 5 1.0 2.0 0.00 0.01 0.01 87 1015.3
20191023191504 59 57 1.0 2.0 0.00 0.01 0.01 87 1015.4
20191023191404 59 81 1.0 2.0 0.00 0.01 0.01 87 1015.2
20191023191304 59 0 0.0 2.0 0.00 0.01 0.01 87 1015.3
20191023191203 59 0 0.0 2.0 0.00 0.01 0.01 87 1015.4
20191023191104 59 0 0.0 2.0 0.00 0.01 0.01 87 1015.3
20191023191004 59 0 0.0 2.0 0.00 0.01 0.01 87 1015.1
20191023190904 60 0 0.0 2.0 0.00 0.01 0.01 87 1015.1
20191023190804 60 0 0.0 2.0 0.00 0.01 0.01 87 1015.3
20191023190704 60 0 0.0 2.0 0.00 0.01 0.01 87 1015.2
20191023190603 60 58 1.0 2.0 0.00 0.01 0.01 87 1015.2
20191023190504 60 0 0.0 2.0 0.00 0.01 0.01 87 1015.2
20191023190204 60 0 0.0 2.0 0.00 0.01 0.01 87 1015.2
20191023190104 60 0 0.0 2.0 0.00 0.01 0.01 87 1015.2
20191023190004 60 0 0.0 2.0 0.00 0.01 0.01 87 1015.2
20191023185905 60 0 0.0 2.0 0.00 0.01 0.01 87 1015.1
20191023185803 60 0 0.0 2.0 0.00 0.01 0.01 87 1015.1
20191023185704 60 268 1.0 2.0 0.00 0.01 0.01 87 1015.1
20191023185604 60 0 0.0 2.0 0.00 0.01 0.01 88 1015.1
20191023185504 60 0 0.0 2.0 0.00 0.01 0.01 88 1015.3
20191023185404 60 0 0.0 2.0 0.00 0.01 0.01 88 1015.2
20191023185304 60 264 1.0 2.0 0.00 0.01 0.01 88 1015.2
20191023185204 60 256 1.0 2.0 0.00 0.01 0.01 88 1015.1
20191023185104 60 0 0.0 2.0 0.00 0.01 0.01 88 1015.1
20191023185004 60 0 0.0 2.0 0.00 0.01 0.01 88 1015.1
20191023184904 60 263 1.0 3.0 0.00 0.01 0.01 88 1015.1
20191023184804 60 0 0.0 3.0 0.00 0.01 0.01 88 1015.1
20191023184704 60 274 1.0 3.0 0.00 0.01 0.01 88 1015.2
20191023184604 60 275 2.0 3.0 0.00 0.01 0.01 88 1015.1
20191023184504 60 285 2.0 3.0 0.00 0.01 0.01 88 1015.2
20191023184404 60 287 1.0 3.0 0.00 0.01 0.01 88 1015.1
20191023184304 60 0 0.0 4.0 0.00 0.01 0.01 87 1015.1
20191023184204 60 0 0.0 4.0 0.00 0.01 0.01 87 1015.1
20191023184104 60 282 1.0 4.0 0.00 0.01 0.01 87 1015.2
20191023184004 60 282 2.0 4.0 0.00 0.01 0.01 87 1015.2
20191023183904 60 280 2.0 4.0 0.00 0.01 0.01 87 1015.3
20191023183804 60 278 2.0 4.0 0.00 0.01 0.01 86 1015.3
20191023183704 60 273 2.0 4.0 0.00 0.01 0.01 86 1015.3
20191023183604 60 270 2.0 4.0 0.00 0.01 0.01 86 1015.2
20191023183504 60 265 2.0 4.0 0.00 0.01 0.01 87 1015.2
20191023183404 60 266 2.0 4.0 0.00 0.01 0.01 87 1015.3
20191023183304 60 266 3.0 4.0 0.00 0.01 0.01 87 1015.2
20191023183204 60 267 2.0 4.0 0.00 0.01 0.01 87 1015.2
20191023183104 61 269 2.0 4.0 0.00 0.01 0.01 88 1015.3
20191023183004 61 269 2.0 4.0 0.00 0.01 0.01 88 1015.2
20191023182904 61 0 0.0 4.0 0.00 0.01 0.01 88 1015.3
20191023182804 61 268 1.0 4.0 0.00 0.01 0.01 88 1015.3
20191023182704 61 269 1.0 4.0 0.00 0.01 0.01 88 1015.5
20191023182604 61 271 2.0 4.0 0.00 0.01 0.01 88 1015.3
20191023182504 60 274 2.0 4.0 0.00 0.01 0.01 87 1015.4
20191023182404 60 273 3.0 4.0 0.00 0.01 0.01 87 1015.3
20191023182304 60 285 2.0 2.0 0.00 0.01 0.01 87 1015.4
20191023182204 60 284 2.0 2.0 0.00 0.01 0.01 87 1015.4
20191023182104 60 0 0.0 2.0 0.00 0.01 0.01 87 1015.4
20191023182004 60 0 0.0 2.0 0.00 0.01 0.01 87 1015.4
20191023181904 60 0 0.0 2.0 0.00 0.01 0.01 87 1015.4
20191023181804 60 284 2.0 4.0 0.00 0.01 0.01 86 1015.5
20191023181704 60 0 0.0 4.0 0.00 0.01 0.01 86 1015.4
20191023181604 60 0 0.0 4.0 0.00 0.01 0.01 86 1015.5
20191023181504 60 278 1.0 4.0 0.00 0.01 0.01 86 1015.5
20191023181404 60 272 1.0 4.0 0.00 0.01 0.01 86 1015.5
20191023181304 60 0 0.0 4.0 0.00 0.01 0.01 86 1015.4
20191023181204 60 0 0.0 4.0 0.00 0.01 0.01 86 1015.5
20191023181104 60 0 0.0 4.0 0.00 0.01 0.01 86 1015.6
20191023181004 60 270 1.0 4.0 0.00 0.01 0.01 86 1015.4
20191023180904 60 0 0.0 4.0 0.00 0.01 0.01 86 1015.4
20191023180804 61 270 3.0 4.0 0.00 0.01 0.01 85 1015.5
20191023180703 61 270 3.0 4.0 0.00 0.01 0.01 85 1015.4
20191023180604 61 270 3.0 4.0 0.00 0.01 0.01 85 1015.4
20191023180504 61 271 3.0 4.0 0.00 0.01 0.01 85 1015.4
20191023180404 61 272 3.0 4.0 0.00 0.01 0.01 85 1015.5
20191023180304 61 273 3.0 4.0 0.00 0.01 0.01 85 1015.5
20191023180204 61 274 3.0 4.0 0.00 0.01 0.01 85 1015.6
20191023180104 61 277 3.0 4.0 0.00 0.01 0.01 85 1015.4
20191023180004 61 278 3.0 4.0 0.00 0.01 0.01 85 1015.3
20191023175903 61 284 3.0 4.0 0.00 0.01 0.01 85 1015.4
20191023175804 61 295 2.0 3.0 0.00 0.01 0.01 85 1015.5
20191023175704 61 0 0.0 3.0 0.00 0.01 0.01 85 1015.5
20191023175604 61 0 0.0 3.0 0.00 0.01 0.01 85 1015.5
20191023175504 61 0 0.0 3.0 0.00 0.01 0.01 85 1015.5
20191023175404 61 296 1.0 3.0 0.00 0.01 0.01 85 1015.6
20191023175304 61 294 1.0 3.0 0.00 0.01 0.01 85 1015.5
20191023175204 61 293 1.0 3.0 0.00 0.01 0.01 85 1015.6
20191023175103 61 290 1.0 3.0 0.00 0.01 0.01 85 1015.6
20191023175004 61 0 0.0 3.0 0.00 0.01 0.01 85 1015.5
20191023174904 61 289 2.0 3.0 0.00 0.01 0.01 85 1015.5
20191023174804 61 288 2.0 3.0 0.00 0.01 0.01 85 1015.5
20191023174704 61 281 2.0 3.0 0.00 0.01 0.01 84 1015.5
20191023174604 61 282 2.0 3.0 0.00 0.01 0.01 84 1015.5
20191023174504 61 285 2.0 2.0 0.00 0.01 0.01 84 1015.5
20191023174404 62 290 2.0 2.0 0.00 0.01 0.01 84 1015.6
20191023174303 62 291 2.0 2.0 0.00 0.01 0.01 84 1015.6
20191023174204 62 289 2.0 2.0 0.00 0.01 0.01 84 1015.4
20191023174104 62 297 1.0 2.0 0.00 0.01 0.01 84 1015.5
20191023174004 62 307 1.0 2.0 0.00 0.01 0.01 84 1015.5
20191023173904 62 308 1.0 3.0 0.00 0.01 0.01 84 1015.5
20191023173804 62 0 0.0 3.0 0.00 0.01 0.01 84 1015.5
20191023173704 62 294 1.0 3.0 0.00 0.01 0.01 84 1015.5
20191023173604 62 285 2.0 3.0 0.00 0.01 0.01 84 1015.5
20191023173504 62 283 1.0 3.0 0.00 0.01 0.01 84 1015.6
20191023173404 62 279 1.0 3.0 0.00 0.01 0.01 84 1015.5
20191023173304 62 281 1.0 3.0 0.00 0.01 0.01 84 1015.5
20191023173203 62 286 1.0 3.0 0.00 0.01 0.01 84 1015.5
20191023173104 62 280 1.0 3.0 0.00 0.01 0.01 84 1015.5
20191023173004 62 275 1.0 3.0 0.00 0.01 0.01 84 1015.5
20191023172904 62 274 2.0 3.0 0.00 0.01 0.01 84 1015.5
20191023172803 62 285 2.0 3.0 0.00 0.01 0.01 84 1015.5
20191023172705 62 295 2.0 3.0 0.00 0.01 0.01 84 1015.5
20191023172605 62 312 2.0 3.0 0.00 0.01 0.01 84 1015.5
20191023172505 62 303 1.0 3.0 0.00 0.01 0.01 84 1015.5
20191023172405 62 311 2.0 3.0 0.00 0.01 0.01 84 1015.5
20191023172304 62 313 2.0 3.0 0.00 0.01 0.01 84 1015.5
20191023172204 62 0 0.0 3.0 0.00 0.01 0.01 84 1015.5
20191023172104 62 0 0.0 3.0 0.00 0.01 0.01 84 1015.5
20191023172004 62 301 1.0 3.0 0.00 0.01 0.01 84 1015.6
20191023171903 62 294 1.0 3.0 0.00 0.01 0.01 84 1015.4
20191023171803 62 292 2.0 3.0 0.00 0.01 0.01 84 1015.5
20191023171703 62 289 1.0 4.0 0.00 0.01 0.01 84 1015.5
20191023171603 62 284 2.0 4.0 0.00 0.01 0.01 84 1015.4
20191023171503 62 284 2.0 4.0 0.00 0.01 0.01 83 1015.5
20191023171403 62 285 2.0 4.0 0.00 0.01 0.01 83 1015.5
20191023171303 63 284 2.0 4.0 0.00 0.01 0.01 83 1015.5
20191023171203 63 286 2.0 4.0 0.00 0.01 0.01 83 1015.5
20191023171103 63 280 2.0 4.0 0.00 0.01 0.01 83 1015.5
20191023171003 63 277 2.0 4.0 0.00 0.01 0.01 83 1015.5
20191023170903 63 276 2.0 4.0 0.00 0.01 0.01 83 1015.5
20191023170803 63 277 2.0 4.0 0.00 0.01 0.01 83 1015.5
20191023170703 63 276 3.0 4.0 0.00 0.01 0.01 83 1015.5
20191023170603 63 277 3.0 4.0 0.00 0.01 0.01 83 1015.5
20191023170503 63 281 3.0 4.0 0.00 0.01 0.01 83 1015.4
20191023170403 63 279 2.0 4.0 0.00 0.01 0.01 83 1015.5
20191023170303 63 272 4.0 4.0 0.00 0.01 0.01 83 1015.5
20191023170204 63 276 2.0 4.0 0.00 0.01 0.01 83 1015.3
20191023170103 63 285 2.0 4.0 0.00 0.01 0.01 83 1015.5
20191023170003 63 292 2.0 4.0 0.00 0.01 0.01 83 1015.5
20191023165904 63 297 2.0 4.0 0.00 0.01 0.01 83 1015.5
20191023165803 63 290 2.0 4.0 0.00 0.01 0.01 83 1015.5
20191023165703 63 292 3.0 4.0 0.00 0.01 0.01 83 1015.4
20191023165603 63 294 2.0 4.0 0.00 0.01 0.01 83 1015.5
20191023165503 63 292 3.0 4.0 0.00 0.01 0.01 82 1015.5
20191023165403 63 289 3.0 4.0 0.00 0.01 0.01 82 1015.4
20191023165303 63 290 2.0 4.0 0.00 0.01 0.01 82 1015.6
20191023165203 63 286 2.0 4.0 0.00 0.01 0.01 82 1015.5
20191023165103 63 282 3.0 4.0 0.00 0.01 0.01 82 1015.5
20191023165003 63 279 2.0 4.0 0.00 0.01 0.01 82 1015.5
20191023164903 64 275 3.0 4.0 0.00 0.01 0.01 80 1015.4
20191023164804 64 279 4.0 4.0 0.00 0.01 0.01 80 1015.5
20191023164703 64 279 4.0 4.0 0.00 0.01 0.01 80 1015.5
20191023164603 64 273 3.0 4.0 0.00 0.01 0.01 80 1015.4
20191023164503 64 273 4.0 4.0 0.00 0.01 0.01 80 1015.5
20191023164403 64 276 3.0 4.0 0.00 0.01 0.01 80 1015.5
20191023164303 64 280 3.0 4.0 0.00 0.01 0.01 80 1015.3
20191023164203 64 281 2.0 4.0 0.00 0.01 0.01 80 1015.4
20191023164103 64 283 2.0 4.0 0.00 0.01 0.01 80 1015.4
20191023164003 64 282 2.0 4.0 0.00 0.01 0.01 80 1015.5
20191023163903 64 283 2.0 4.0 0.00 0.01 0.01 80 1015.4
20191023163804 64 281 2.0 4.0 0.00 0.01 0.01 80 1015.5
20191023163703 64 277 2.0 4.0 0.00 0.01 0.01 80 1015.4
20191023163603 64 281 2.0 4.0 0.00 0.01 0.01 80 1015.5
20191023163503 64 281 3.0 4.0 0.00 0.01 0.01 80 1015.4
20191023163404 64 279 3.0 4.0 0.00 0.01 0.01 80 1015.4
20191023163303 64 274 2.0 4.0 0.00 0.01 0.01 80 1015.5
20191023163204 64 273 3.0 4.0 0.00 0.01 0.01 80 1015.5
20191023163103 64 272 4.0 4.0 0.00 0.01 0.01 80 1015.5
20191023163004 64 276 3.0 4.0 0.00 0.01 0.01 80 1015.5
20191023162903 64 274 2.0 4.0 0.00 0.01 0.01 80 1015.5
20191023162803 64 274 2.0 4.0 0.00 0.01 0.01 80 1015.4
20191023162703 64 274 2.0 4.0 0.00 0.01 0.01 80 1015.4
20191023162603 65 269 3.0 4.0 0.00 0.01 0.01 80 1015.4
20191023162503 65 267 3.0 4.0 0.00 0.01 0.01 79 1015.5
20191023162403 65 267 2.0 4.0 0.00 0.01 0.01 79 1015.5
20191023162303 65 269 2.0 4.0 0.00 0.01 0.01 79 1015.5
20191023162203 65 269 2.0 4.0 0.00 0.01 0.01 79 1015.4
20191023162103 65 269 2.0 4.0 0.00 0.01 0.01 79 1015.5
20191023162004 65 266 2.0 4.0 0.00 0.01 0.01 79 1015.4
20191023161903 65 266 3.0 4.0 0.00 0.01 0.01 79 1015.5
20191023161803 65 262 3.0 4.0 0.00 0.01 0.01 79 1015.4
20191023161703 65 259 2.0 4.0 0.00 0.01 0.01 79 1015.4
20191023161603 65 261 2.0 4.0 0.00 0.01 0.01 79 1015.4
20191023161503 65 261 2.0 4.0 0.00 0.01 0.01 79 1015.2
20191023161403 65 260 2.0 4.0 0.00 0.01 0.01 79 1015.4
20191023161303 65 260 2.0 4.0 0.00 0.01 0.01 78 1015.3
20191023161204 65 262 2.0 4.0 0.00 0.01 0.01 78 1015.3
20191023161103 65 262 2.0 4.0 0.00 0.01 0.01 78 1015.3
20191023161004 65 263 2.0 4.0 0.00 0.01 0.01 78 1015.2
20191023160904 65 263 2.0 4.0 0.00 0.01 0.01 78 1015.3
20191023160803 66 267 2.0 4.0 0.00 0.01 0.01 78 1015.2
20191023160703 66 270 2.0 4.0 0.00 0.01 0.01 78 1015.2
20191023160603 66 272 3.0 4.0 0.00 0.01 0.01 78 1015.2
20191023160503 66 272 2.0 4.0 0.00 0.01 0.01 77 1015.2
20191023160403 66 272 2.0 4.0 0.00 0.01 0.01 77 1015.2
20191023160303 66 272 3.0 4.0 0.00 0.01 0.01 77 1015.2
20191023160203 66 270 2.0 4.0 0.00 0.01 0.01 77 1015.2
20191023160103 66 271 2.0 4.0 0.00 0.01 0.01 77 1015.1
20191023160004 66 271 2.0 4.0 0.00 0.01 0.01 77 1015.2
20191023155903 66 270 2.0 4.0 0.00 0.01 0.01 77 1015.3
20191023155803 66 270 3.0 4.0 0.00 0.01 0.01 77 1015.2
20191023155703 67 270 3.0 4.0 0.00 0.01 0.01 77 1015.2
20191023155604 67 270 4.0 4.0 0.00 0.01 0.01 77 1015.2
20191023155504 67 270 4.0 4.0 0.00 0.01 0.01 77 1015.2
20191023155404 67 270 2.0 4.0 0.00 0.01 0.01 77 1015.2
20191023155303 67 267 3.0 4.0 0.00 0.01 0.01 77 1015.2
20191023155204 67 265 3.0 4.0 0.00 0.01 0.01 77 1015.2
20191023155103 67 264 2.0 4.0 0.00 0.01 0.01 77 1015.2
20191023155004 67 264 2.0 4.0 0.00 0.01 0.01 77 1015.2
20191023154904 67 265 3.0 4.0 0.00 0.01 0.01 76 1015.2
20191023154804 67 265 3.0 4.0 0.00 0.01 0.01 76 1015.2
20191023154704 67 265 3.0 5.0 0.00 0.01 0.01 76 1015.3
20191023154604 67 265 3.0 5.0 0.00 0.01 0.01 76 1015.2
20191023154504 67 265 3.0 5.0 0.00 0.01 0.01 76 1015.2
20191023154404 67 266 3.0 5.0 0.00 0.01 0.01 76 1015.2
20191023154304 67 267 3.0 5.0 0.00 0.01 0.01 76 1015.2
20191023154204 67 267 4.0 5.0 0.00 0.01 0.01 75 1015.2
20191023154104 68 264 3.0 5.0 0.00 0.01 0.01 75 1015.2
20191023154004 68 261 3.0 5.0 0.00 0.01 0.01 75 1015.2
20191023153904 68 261 2.0 5.0 0.00 0.01 0.01 75 1015.1
20191023153804 68 262 2.0 5.0 0.00 0.01 0.01 75 1015.2
20191023153704 68 265 4.0 5.0 0.00 0.01 0.01 75 1015.2
20191023153604 68 265 4.0 5.0 0.00 0.01 0.01 75 1015.3
20191023153504 68 263 4.0 4.0 0.00 0.01 0.01 75 1015.1
20191023153403 68 263 4.0 4.0 0.00 0.01 0.01 75 1015.1
20191023153304 68 264 4.0 4.0 0.00 0.01 0.01 75 1015.2
20191023153204 68 265 4.0 4.0 0.00 0.01 0.01 75 1015.2
20191023153104 68 270 4.0 4.0 0.00 0.01 0.01 75 1015.1
20191023153004 68 273 3.0 4.0 0.00 0.01 0.01 75 1015.1
20191023152903 68 273 4.0 4.0 0.00 0.01 0.01 76 1015.2
20191023152804 68 272 3.0 4.0 0.00 0.01 0.01 76 1015.0
20191023152705 68 268 3.0 4.0 0.00 0.01 0.01 75 1015.1
20191023152603 68 265 3.0 4.0 0.00 0.01 0.01 75 1015.2
20191023152505 68 264 2.0 4.0 0.00 0.01 0.01 75 1015.0
20191023152404 68 263 2.0 4.0 0.00 0.01 0.01 74 1015.0
20191023152304 68 262 2.0 4.0 0.00 0.01 0.01 74 1015.0
20191023152204 69 262 3.0 4.0 0.00 0.01 0.01 74 1015.0
20191023152104 69 262 3.0 4.0 0.00 0.01 0.01 73 1015.2
20191023152005 69 259 3.0 4.0 0.00 0.01 0.01 73 1015.1
20191023151905 69 253 2.0 4.0 0.00 0.01 0.01 73 1015.2
20191023151804 69 253 2.0 4.0 0.00 0.01 0.01 73 1015.2
20191023151704 69 253 2.0 4.0 0.00 0.01 0.01 73 1015.1
20191023151605 69 257 2.0 4.0 0.00 0.01 0.01 73 1015.2
20191023151504 69 259 3.0 4.0 0.00 0.01 0.01 73 1015.2
20191023151404 69 260 2.0 4.0 0.00 0.01 0.01 73 1015.2
20191023151304 69 261 2.0 4.0 0.00 0.01 0.01 73 1015.1
20191023151204 69 261 2.0 4.0 0.00 0.01 0.01 73 1015.1
20191023151104 69 261 2.0 4.0 0.00 0.01 0.01 73 1015.4
20191023151004 69 263 2.0 4.0 0.00 0.01 0.01 73 1015.2
20191023150904 69 267 3.0 4.0 0.00 0.01 0.01 73 1015.2
20191023150804 69 265 3.0 4.0 0.00 0.01 0.01 73 1015.1
20191023150704 69 262 3.0 4.0 0.00 0.01 0.01 73 1015.2
20191023150604 69 263 2.0 3.0 0.00 0.01 0.01 73 1015.2
20191023150504 70 264 2.0 3.0 0.00 0.01 0.01 72 1015.3
20191023150404 70 264 2.0 3.0 0.00 0.01 0.01 72 1015.2
20191023150304 70 264 2.0 4.0 0.00 0.01 0.01 72 1015.3
20191023150204 70 261 2.0 4.0 0.00 0.01 0.01 72 1015.2
20191023150104 70 261 2.0 4.0 0.00 0.01 0.01 72 1015.0
20191023150004 70 261 2.0 4.0 0.00 0.01 0.01 72 1015.2
20191023145904 70 262 2.0 4.0 0.00 0.01 0.01 72 1015.3
20191023145804 70 265 2.0 4.0 0.00 0.01 0.01 72 1015.2
20191023145704 70 267 2.0 4.0 0.00 0.01 0.01 72 1015.1
20191023145604 70 267 2.0 4.0 0.00 0.01 0.01 72 1015.1
20191023145504 70 264 2.0 4.0 0.00 0.01 0.01 72 1015.1
20191023145404 70 264 2.0 4.0 0.00 0.01 0.01 72 1015.1
20191023145304 70 264 2.0 4.0 0.00 0.01 0.01 72 1015.1
20191023145204 70 267 2.0 4.0 0.00 0.01 0.01 72 1015.0
20191023145104 70 267 2.0 4.0 0.00 0.01 0.01 72 1015.1
20191023145004 70 267 2.0 4.0 0.00 0.01 0.01 72 1015.1
20191023144904 70 266 3.0 4.0 0.00 0.01 0.01 72 1015.0
20191023144804 70 264 2.0 4.0 0.00 0.01 0.01 72 1015.0
20191023144704 70 264 2.0 4.0 0.00 0.01 0.01 72 1015.0
20191023144604 70 264 2.0 4.0 0.00 0.01 0.01 72 1015.1
20191023144504 70 267 3.0 4.0 0.00 0.01 0.01 71 1015.0
20191023144404 70 267 2.0 3.0 0.00 0.01 0.01 71 1015.1
20191023144304 70 267 2.0 3.0 0.00 0.01 0.01 71 1014.9
20191023144204 70 267 2.0 3.0 0.00 0.01 0.01 71 1014.9
20191023144104 70 266 2.0 3.0 0.00 0.01 0.01 71 1014.9
20191023144004 70 266 2.0 3.0 0.00 0.01 0.01 71 1015.1
20191023143904 70 268 2.0 4.0 0.00 0.01 0.01 71 1015.0
20191023143804 70 270 2.0 4.0 0.00 0.01 0.01 71 1015.1
20191023143704 70 270 2.0 4.0 0.00 0.01 0.01 71 1015.0
20191023143604 71 270 2.0 4.0 0.00 0.01 0.01 71 1014.9
20191023143504 71 270 2.0 4.0 0.00 0.01 0.01 70 1015.1
20191023143404 71 269 2.0 4.0 0.00 0.01 0.01 70 1015.1
20191023143304 71 266 2.0 4.0 0.00 0.01 0.01 70 1014.9
20191023143204 71 266 2.0 4.0 0.00 0.01 0.01 70 1014.9
20191023143104 71 264 2.0 4.0 0.00 0.01 0.01 70 1015.0
20191023143004 71 261 2.0 4.0 0.00 0.01 0.01 70 1015.0
20191023142904 71 261 3.0 4.0 0.00 0.01 0.01 69 1014.9
20191023142804 71 260 2.0 4.0 0.00 0.01 0.01 69 1015.1
20191023142704 71 258 2.0 4.0 0.00 0.01 0.01 69 1015.1
20191023142604 71 257 2.0 4.0 0.00 0.01 0.01 69 1015.0
20191023142504 71 258 3.0 4.0 0.00 0.01 0.01 69 1015.1
20191023142404 71 259 3.0 5.0 0.00 0.01 0.01 69 1015.0
20191023142304 71 262 3.0 5.0 0.00 0.01 0.01 69 1014.9
20191023142204 71 263 2.0 5.0 0.00 0.01 0.01 69 1015.1
20191023142104 71 266 2.0 5.0 0.00 0.01 0.01 68 1015.0
20191023142004 71 265 2.0 5.0 0.00 0.01 0.01 68 1015.1
20191023141904 71 264 3.0 5.0 0.00 0.01 0.01 68 1015.0
20191023141804 71 264 3.0 5.0 0.00 0.01 0.01 68 1015.0
20191023141704 71 267 2.0 5.0 0.00 0.01 0.01 68 1015.0
20191023141604 71 267 4.0 5.0 0.00 0.01 0.01 67 1015.0
20191023141504 71 267 3.0 5.0 0.00 0.01 0.01 67 1015.0
20191023141404 71 266 4.0 5.0 0.00 0.01 0.01 67 1015.0
20191023141304 71 266 3.0 5.0 0.00 0.01 0.01 67 1015.0
20191023141204 71 266 3.0 5.0 0.00 0.01 0.01 67 1014.9
20191023141104 71 265 3.0 5.0 0.00 0.01 0.01 67 1014.8
20191023141004 71 269 3.0 5.0 0.00 0.01 0.01 67 1014.8
20191023140904 71 270 4.0 5.0 0.00 0.01 0.01 67 1014.9
20191023140804 71 270 3.0 5.0 0.00 0.01 0.01 67 1014.9
20191023140704 71 270 2.0 5.0 0.00 0.01 0.01 67 1014.9
20191023140604 71 270 2.0 5.0 0.00 0.01 0.01 67 1015.0
20191023140504 71 270 3.0 5.0 0.00 0.01 0.01 67 1014.9
20191023140404 71 269 3.0 5.0 0.00 0.01 0.01 67 1014.8
20191023140304 71 268 4.0 5.0 0.00 0.01 0.01 67 1014.9
20191023140204 72 271 2.0 4.0 0.00 0.01 0.01 66 1014.9
20191023140104 72 271 2.0 4.0 0.00 0.01 0.01 66 1014.9
20191023140005 72 271 2.0 4.0 0.00 0.01 0.01 66 1014.8
20191023135904 72 271 3.0 4.0 0.00 0.01 0.01 65 1014.8
20191023135804 72 271 4.0 4.0 0.00 0.01 0.01 65 1014.6
20191023135704 72 271 4.0 4.0 0.00 0.01 0.01 65 1014.7
20191023135604 72 271 3.0 4.0 0.00 0.01 0.01 65 1014.7
20191023135504 72 271 2.0 4.0 0.00 0.01 0.01 65 1014.8
20191023135404 72 272 2.0 4.0 0.00 0.01 0.01 64 1014.6
20191023135304 72 272 2.0 4.0 0.00 0.01 0.01 64 1014.7
20191023135205 72 266 3.0 4.0 0.00 0.01 0.01 61 1014.6
20191023135105 73 266 3.0 4.0 0.00 0.01 0.01 60 1014.7
20191023135004 73 262 2.0 4.0 0.00 0.01 0.01 60 1014.6
20191023134905 73 259 2.0 4.0 0.00 0.01 0.01 60 1014.7
20191023134805 73 259 2.0 4.0 0.00 0.01 0.01 60 1014.7
20191023134705 74 259 3.0 4.0 0.00 0.01 0.01 59 1014.8
20191023134604 74 255 3.0 4.0 0.00 0.01 0.01 58 1014.6
20191023134504 74 253 3.0 4.0 0.00 0.01 0.01 58 1014.7
20191023134404 75 248 3.0 4.0 0.00 0.01 0.01 58 1014.7
20191023134303 75 248 3.0 4.0 0.00 0.01 0.01 59 1014.7
20191023134204 75 247 2.0 3.0 0.00 0.01 0.01 58 1014.6
20191023134104 75 248 2.0 3.0 0.00 0.01 0.01 54 1014.7
20191023134004 75 254 2.0 3.0 0.00 0.01 0.01 54 1014.7
20191023133904 76 255 2.0 3.0 0.00 0.01 0.01 54 1014.8
20191023133804 76 249 2.0 3.0 0.00 0.01 0.01 54 1014.7
20191023133703 76 243 2.0 3.0 0.00 0.01 0.01 54 1014.7
20191023133604 76 241 2.0 3.0 0.00 0.01 0.01 52 1014.7
20191023133503 76 241 2.0 3.0 0.00 0.01 0.01 51 1014.8
20191023132204 77 154 1.0 4.0 0.00 0.01 0.01 50 1015.1
20191023132103 76 153 1.0 4.0 0.00 0.01 0.01 50 1015.0
20191023132003 76 157 1.0 4.0 0.00 0.01 0.01 50 1015.1
20191023131903 76 157 2.0 4.0 0.00 0.01 0.01 49 1014.9
20191023131803 76 154 3.0 4.0 0.00 0.01 0.01 49 1015.0
20191023131703 76 0 0.0 4.0 0.00 0.01 0.01 48 1015.1
20191023131603 76 152 2.0 5.0 0.00 0.01 0.01 48 1015.0
20191023131503 76 151 3.0 5.0 0.00 0.01 0.01 48 1015.1
20191023131403 76 153 3.0 5.0 0.00 0.01 0.01 48 1015.0
20191023131303 77 158 3.0 5.0 0.00 0.01 0.01 48 1015.1
20191023131203 77 163 3.0 5.0 0.00 0.01 0.01 49 1015.1
20191023131103 77 165 2.0 5.0 0.00 0.01 0.01 49 1015.0
20191023131004 77 167 2.0 5.0 0.00 0.01 0.01 48 1015.1
20191023130903 77 169 4.0 5.0 0.00 0.01 0.01 48 1015.1
20191023130803 77 168 2.0 5.0 0.00 0.01 0.01 47 1015.2
20191023130703 77 170 2.0 5.0 0.00 0.01 0.01 47 1015.1
20191023130604 77 173 4.0 5.0 0.00 0.01 0.01 47 1015.1
20191023130503 77 176 2.0 4.0 0.00 0.01 0.01 48 1015.1
20191023130403 77 169 2.0 4.0 0.00 0.01 0.01 48 1015.1
20191023130303 77 162 2.0 4.0 0.00 0.01 0.01 48 1015.2
20191023130203 77 160 2.0 4.0 0.00 0.01 0.01 48 1015.1
20191023130103 77 158 2.0 4.0 0.00 0.01 0.01 48 1015.1
20191023130004 77 159 2.0 5.0 0.00 0.01 0.01 48 1015.2
20191023125903 77 163 2.0 6.0 0.00 0.01 0.01 49 1015.1
20191023125810 76 167 2.0 6.0 0.00 0.01 0.01 50 1015.2
20191023125703 76 0 0.0 6.0 0.00 0.01 0.01 50 1015.2
20191023125604 76 169 2.0 6.0 0.00 0.01 0.01 50 1015.2
20191023125503 76 167 2.0 6.0 0.00 0.01 0.01 50 1015.2
20191023125403 76 167 2.0 6.0 0.00 0.01 0.01 50 1015.2
20191023125304 76 168 2.0 6.0 0.00 0.01 0.01 49 1015.4
20191023125203 76 169 2.0 6.0 0.00 0.01 0.01 48 1015.3
20191023125106 76 170 3.0 6.0 0.00 0.01 0.01 48 1015.4
20191023125003 76 161 4.0 8.0 0.00 0.01 0.01 47 1015.3
20191023124903 77 154 5.0 8.0 0.00 0.01 0.01 47 1015.4
20191023124803 77 148 5.0 8.0 0.00 0.01 0.01 47 1015.4
20191023124703 77 142 4.0 8.0 0.00 0.01 0.01 47 1015.3
20191023124604 77 143 3.0 8.0 0.00 0.01 0.01 46 1015.2
20191023124504 77 144 2.0 8.0 0.00 0.01 0.01 47 1015.2
20191023124404 77 149 4.0 8.0 0.00 0.01 0.01 48 1015.3
20191023124304 77 152 4.0 8.0 0.00 0.01 0.01 49 1015.2
20191023124203 77 152 2.0 8.0 0.00 0.01 0.01 50 1015.3
20191023124103 77 149 4.0 8.0 0.00 0.01 0.01 50 1015.3
20191023124003 77 157 6.0 8.0 0.00 0.01 0.01 48 1015.3
20191023123904 77 163 5.0 6.0 0.00 0.01 0.01 49 1015.3
20191023123803 77 164 2.0 5.0 0.00 0.01 0.01 49 1015.4
20191023123703 77 168 3.0 5.0 0.00 0.01 0.01 48 1015.4
20191023123603 77 166 4.0 5.0 0.00 0.01 0.01 48 1015.4
20191023123505 77 166 4.0 5.0 0.00 0.01 0.01 47 1015.4
20191023123403 77 162 3.0 5.0 0.00 0.01 0.01 47 1015.4
20191023123304 77 158 3.0 5.0 0.00 0.01 0.01 47 1015.6
20191023123203 77 156 3.0 5.0 0.00 0.01 0.01 47 1015.6
20191023123103 77 157 3.0 5.0 0.00 0.01 0.01 47 1015.4
20191023123003 77 161 4.0 5.0 0.00 0.01 0.01 48 1015.4
20191023122903 77 154 3.0 5.0 0.00 0.01 0.01 48 1015.6
20191023122803 77 153 4.0 5.0 0.00 0.01 0.01 48 1015.6
20191023122703 78 146 4.0 5.0 0.00 0.01 0.01 49 1015.5
20191023122603 78 143 4.0 5.0 0.00 0.01 0.01 49 1015.6
20191023122503 77 142 2.0 6.0 0.00 0.01 0.01 50 1015.7
20191023122403 77 145 1.0 7.0 0.00 0.01 0.01 50 1015.7
20191023122303 77 141 2.0 7.0 0.00 0.01 0.01 50 1015.6
20191023122203 77 135 2.0 7.0 0.00 0.01 0.01 50 1015.6
20191023122104 77 135 3.0 7.0 0.00 0.01 0.01 49 1015.6
20191023122003 77 132 3.0 7.0 0.00 0.01 0.01 49 1015.6
20191023121903 77 135 2.0 7.0 0.00 0.01 0.01 50 1015.7
20191023121803 76 136 2.0 7.0 0.00 0.01 0.01 51 1015.7
20191023121703 76 138 4.0 7.0 0.00 0.01 0.01 50 1015.6
20191023121603 76 136 4.0 7.0 0.00 0.01 0.01 49 1015.8
20191023121503 76 134 5.0 7.0 0.00 0.01 0.01 49 1015.6
20191023121403 76 132 5.0 7.0 0.00 0.01 0.01 49 1015.7
20191023121303 76 135 4.0 7.0 0.00 0.01 0.01 50 1015.8
20191023121203 76 139 4.0 7.0 0.00 0.01 0.01 49 1015.6
20191023121103 76 138 4.0 7.0 0.00 0.01 0.01 49 1015.6
20191023121003 76 137 5.0 7.0 0.00 0.01 0.01 48 1015.7
20191023120903 76 138 3.0 8.0 0.00 0.01 0.01 50 1015.8
20191023120803 76 143 4.0 8.0 0.00 0.01 0.01 51 1015.8
20191023120703 76 141 3.0 8.0 0.00 0.01 0.01 51 1015.7
20191023120603 76 143 6.0 8.0 0.00 0.01 0.01 51 1015.9
20191023120503 76 142 4.0 8.0 0.00 0.01 0.01 51 1015.8
20191023120403 76 142 4.0 8.0 0.00 0.01 0.01 51 1015.6
20191023120303 76 144 4.0 8.0 0.00 0.01 0.01 51 1015.8
20191023120203 76 146 4.0 8.0 0.00 0.01 0.01 51 1015.7
20191023120104 76 151 4.0 8.0 0.00 0.01 0.01 51 1015.8
20191023120003 76 155 4.0 8.0 0.00 0.01 0.01 51 1015.8
20191023115903 76 153 6.0 8.0 0.00 0.01 0.01 50 1015.8
20191023115804 76 150 6.0 8.0 0.00 0.01 0.01 50 1015.9
20191023115703 76 150 4.0 8.0 0.00 0.01 0.01 51 1015.9
20191023115603 76 150 4.0 8.0 0.00 0.01 0.01 51 1015.8
20191023115503 76 151 4.0 8.0 0.00 0.01 0.01 51 1015.8
20191023115405 76 152 4.0 8.0 0.00 0.01 0.01 52 1015.9
20191023115303 76 156 5.0 8.0 0.00 0.01 0.01 51 1015.9
20191023115205 76 159 6.0 8.0 0.00 0.01 0.01 51 1016.0
20191023115105 76 160 4.0 8.0 0.00 0.01 0.01 51 1016.0
20191023115006 76 156 2.0 8.0 0.00 0.01 0.01 51 1015.9
20191023114905 76 159 2.0 8.0 0.00 0.01 0.01 51 1016.1
20191023114805 76 164 6.0 8.0 0.00 0.01 0.01 51 1015.9
20191023114705 76 170 6.0 8.0 0.00 0.01 0.01 51 1016.0
20191023114505 76 179 4.0 8.0 0.00 0.01 0.01 52 1015.9
20191023114405 76 178 3.0 8.0 0.00 0.01 0.01 51 1016.0
20191023114304 76 176 4.0 8.0 0.00 0.01 0.01 51 1015.9
20191023114205 76 170 4.0 8.0 0.00 0.01 0.01 51 1016.0
20191023114104 76 167 7.0 8.0 0.00 0.01 0.01 52 1015.9
20191023114006 76 168 2.0 6.0 0.00 0.01 0.01 52 1015.9
20191023113904 76 164 2.0 6.0 0.00 0.01 0.01 52 1016.1
20191023113804 76 157 4.0 7.0 0.00 0.01 0.01 52 1016.0
20191023113707 76 151 3.0 8.0 0.00 0.01 0.01 51 1016.0
20191023113604 76 147 4.0 8.0 0.00 0.01 0.01 51 1016.0
20191023113504 76 145 4.0 8.0 0.00 0.01 0.01 52 1015.9
20191023113404 76 142 2.0 8.0 0.00 0.01 0.01 52 1016.1
20191023113306 76 144 5.0 8.0 0.00 0.01 0.01 52 1016.0
20191023113204 76 149 4.0 8.0 0.00 0.01 0.01 52 1016.1
20191023113104 76 148 4.0 8.0 0.00 0.01 0.01 52 1016.0
20191023113005 76 152 4.0 8.0 0.00 0.01 0.01 53 1016.0
20191023112904 76 151 3.0 8.0 0.00 0.01 0.01 53 1016.0
20191023112804 75 151 5.0 8.0 0.00 0.01 0.01 53 1016.2
20191023112704 76 151 6.0 8.0 0.00 0.01 0.01 53 1016.1
20191023112604 76 150 6.0 7.0 0.00 0.01 0.01 53 1016.1
20191023112504 75 154 4.0 7.0 0.00 0.01 0.01 53 1016.2
20191023112405 75 156 4.0 7.0 0.00 0.01 0.01 53 1016.0
20191023112305 76 151 5.0 7.0 0.00 0.01 0.01 53 1016.1
20191023112204 76 146 6.0 7.0 0.00 0.01 0.01 52 1016.1
20191023112104 76 144 4.0 7.0 0.00 0.01 0.01 52 1016.1
20191023112004 76 141 4.0 8.0 0.00 0.01 0.01 52 1016.2
20191023111904 76 139 4.0 8.0 0.00 0.01 0.01 52 1016.1
20191023111804 76 136 4.0 8.0 0.00 0.01 0.01 52 1016.2
20191023111704 76 134 4.0 8.0 0.00 0.01 0.01 53 1016.2
20191023111605 76 137 4.0 8.0 0.00 0.01 0.01 52 1016.3
20191023111504 76 137 4.0 8.0 0.00 0.01 0.01 51 1016.2
20191023111404 76 138 5.0 8.0 0.00 0.01 0.01 51 1016.3
20191023111304 76 143 3.0 8.0 0.00 0.01 0.01 50 1016.2
20191023111204 76 149 4.0 8.0 0.00 0.01 0.01 50 1016.2
20191023111104 77 157 6.0 8.0 0.00 0.01 0.01 50 1016.3
20191023111004 77 172 6.0 8.0 0.00 0.01 0.01 50 1016.2
20191023110904 77 191 2.0 6.0 0.00 0.01 0.01 51 1016.2
20191023110804 77 203 4.0 6.0 0.00 0.01 0.01 51 1016.2
20191023110704 77 210 2.0 6.0 0.00 0.01 0.01 51 1016.3
20191023110605 77 205 5.0 6.0 0.00 0.01 0.01 51 1016.2
20191023110504 76 186 2.0 7.0 0.00 0.01 0.01 52 1016.2
20191023110404 76 162 2.0 7.0 0.00 0.01 0.01 52 1016.4
20191023110304 76 145 2.0 7.0 0.00 0.01 0.01 52 1016.4
20191023110203 76 144 2.0 7.0 0.00 0.01 0.01 52 1016.3
20191023110107 76 140 2.0 7.0 0.00 0.01 0.01 52 1016.3
20191023110004 76 135 2.0 7.0 0.00 0.01 0.01 52 1016.4
20191023105904 76 130 2.0 7.0 0.00 0.01 0.01 52 1016.4
20191023105804 76 0 0.0 7.0 0.00 0.01 0.01 52 1016.4
20191023105704 75 127 2.0 7.0 0.00 0.01 0.01 52 1016.4
20191023105604 76 134 5.0 7.0 0.00 0.01 0.01 52 1016.6
20191023105504 76 139 6.0 7.0 0.00 0.01 0.01 52 1016.6
20191023105404 76 149 6.0 7.0 0.00 0.01 0.01 51 1016.5
20191023105306 76 149 4.0 6.0 0.00 0.01 0.01 51 1016.6
20191023105204 76 140 5.0 6.0 0.00 0.01 0.01 51 1016.6
20191023105104 77 133 2.0 6.0 0.00 0.01 0.01 51 1016.6
20191023105004 77 133 2.0 6.0 0.00 0.01 0.01 51 1016.6
20191023104904 76 129 1.0 6.0 0.00 0.01 0.01 51 1016.6
20191023104804 76 129 3.0 6.0 0.00 0.01 0.01 51 1016.6
20191023104704 76 133 3.0 6.0 0.00 0.01 0.01 50 1016.6
20191023104604 76 130 3.0 6.0 0.00 0.01 0.01 51 1016.6
20191023104504 76 126 4.0 6.0 0.00 0.01 0.01 49 1016.6
20191023104404 76 126 4.0 6.0 0.00 0.01 0.01 48 1016.6
20191023104304 76 130 3.0 5.0 0.00 0.01 0.01 48 1016.8
20191023104204 76 136 3.0 5.0 0.00 0.01 0.01 48 1016.6
20191023104104 77 139 3.0 5.0 0.00 0.01 0.01 48 1016.7
20191023104004 77 141 4.0 5.0 0.00 0.01 0.01 49 1016.6
20191023103905 77 145 4.0 5.0 0.00 0.01 0.01 50 1016.6
20191023103804 77 149 2.0 5.0 0.00 0.01 0.01 51 1016.8
20191023103704 76 145 3.0 5.0 0.00 0.01 0.01 51 1016.7
20191023103604 76 146 1.0 5.0 0.00 0.01 0.01 51 1016.6
20191023103504 76 144 1.0 5.0 0.00 0.01 0.01 51 1016.8
20191023103404 75 141 2.0 5.0 0.00 0.01 0.01 50 1016.6
20191023103304 75 140 3.0 5.0 0.00 0.01 0.01 50 1016.8
20191023103204 75 138 2.0 5.0 0.00 0.01 0.01 50 1016.6
20191023103103 75 139 4.0 5.0 0.00 0.01 0.01 50 1016.7
20191023103004 75 139 4.0 5.0 0.00 0.01 0.01 50 1016.7
20191023102904 75 140 4.0 5.0 0.00 0.01 0.01 50 1016.7
20191023102804 75 137 4.0 5.0 0.00 0.01 0.01 50 1016.6
20191023102704 75 136 3.0 6.0 0.00 0.01 0.01 50 1016.5
20191023102604 75 135 2.0 6.0 0.00 0.01 0.01 50 1016.8
20191023102504 75 133 4.0 6.0 0.00 0.01 0.01 50 1016.7
20191023102404 75 130 4.0 6.0 0.00 0.01 0.01 51 1016.7
20191023102305 74 125 3.0 6.0 0.00 0.01 0.01 51 1016.7
20191023102204 74 127 3.0 6.0 0.00 0.01 0.01 51 1016.7
20191023102104 74 129 3.0 6.0 0.00 0.01 0.01 52 1016.9
20191023102004 74 129 4.0 6.0 0.00 0.01 0.01 52 1016.8
20191023101904 74 126 4.0 6.0 0.00 0.01 0.01 52 1017.0
20191023101805 74 123 2.0 6.0 0.00 0.01 0.01 52 1016.9
20191023101704 74 119 4.0 6.0 0.00 0.01 0.01 51 1016.8
20191023101604 74 112 3.0 5.0 0.00 0.01 0.01 51 1016.7
20191023101504 74 110 3.0 5.0 0.00 0.01 0.01 51 1016.9
20191023101404 75 112 4.0 5.0 0.00 0.01 0.01 51 1016.9
20191023101304 75 116 3.0 5.0 0.00 0.01 0.01 52 1016.7
20191023101204 75 108 3.0 5.0 0.00 0.01 0.01 52 1016.8
20191023101104 75 99 4.0 5.0 0.00 0.01 0.01 52 1016.8
20191023101004 75 91 3.0 4.0 0.00 0.01 0.01 52 1016.8
20191023100904 76 89 2.0 4.0 0.00 0.01 0.01 51 1016.9
20191023100804 76 86 2.0 4.0 0.00 0.01 0.01 51 1016.8
20191023100704 76 83 2.0 4.0 0.00 0.01 0.01 51 1016.9
20191023100604 76 88 2.0 3.0 0.00 0.01 0.01 51 1016.9
20191023100506 77 88 1.0 2.0 0.00 0.01 0.01 52 1016.8
20191023100404 77 87 1.0 2.0 0.00 0.01 0.01 52 1016.9
20191023100304 77 99 1.0 2.0 0.00 0.01 0.01 52 1016.9
20191023100204 77 111 1.0 4.0 0.00 0.01 0.01 52 1016.9
20191023100104 77 131 1.0 4.0 0.00 0.01 0.01 52 1016.8
20191023100004 77 144 1.0 4.0 0.00 0.01 0.01 52 1016.7
20191023095905 76 153 1.0 4.0 0.00 0.01 0.01 53 1016.7
20191023095805 76 156 1.0 4.0 0.00 0.01 0.01 53 1016.8
20191023095704 75 0 0.0 4.0 0.00 0.01 0.01 55 1016.8
20191023095605 75 0 0.0 4.0 0.00 0.01 0.01 55 1016.8
20191023095504 74 0 0.0 4.0 0.00 0.01 0.01 55 1016.7
20191023095404 74 0 0.0 4.0 0.00 0.01 0.01 55 1016.8
20191023095305 74 131 2.0 4.0 0.00 0.01 0.01 55 1016.8
20191023095204 73 127 4.0 4.0 0.00 0.01 0.01 54 1016.8
20191023095104 73 127 4.0 4.0 0.00 0.01 0.01 54 1016.8
20191023095004 73 127 2.0 4.0 0.00 0.01 0.01 55 1016.9
20191023094904 73 124 2.0 4.0 0.00 0.01 0.01 54 1016.8
20191023094804 72 119 2.0 4.0 0.00 0.01 0.01 54 1016.8
20191023094704 72 117 2.0 4.0 0.00 0.01 0.01 54 1016.8
20191023094604 72 125 2.0 5.0 0.00 0.01 0.01 54 1016.8
20191023094504 73 128 2.0 5.0 0.00 0.01 0.01 53 1016.8
20191023094404 73 128 3.0 5.0 0.00 0.01 0.01 53 1017.0
20191023094304 73 128 4.0 5.0 0.00 0.01 0.01 54 1017.0
20191023094204 73 128 4.0 5.0 0.00 0.01 0.01 54 1017.0
20191023094104 73 120 2.0 5.0 0.00 0.01 0.01 53 1017.0
20191023094005 72 115 3.0 5.0 0.00 0.01 0.01 53 1017.0
20191023093904 72 109 2.0 5.0 0.00 0.01 0.01 53 1016.9
20191023093804 72 114 2.0 5.0 0.00 0.01 0.01 53 1016.9
20191023093704 72 117 4.0 5.0 0.00 0.01 0.01 53 1016.8
20191023093604 72 113 4.0 5.0 0.00 0.01 0.01 57 1017.0
20191023093504 72 109 3.0 4.0 0.00 0.01 0.01 58 1017.1
20191023093404 72 110 4.0 4.0 0.00 0.01 0.01 58 1017.0
20191023093304 72 111 2.0 4.0 0.00 0.01 0.01 59 1017.1
20191023093206 71 116 2.0 4.0 0.00 0.01 0.01 60 1017.0
20191023093104 71 125 2.0 4.0 0.00 0.01 0.01 60 1017.1
20191023093005 71 124 2.0 4.0 0.00 0.01 0.01 60 1017.1
20191023092904 71 126 3.0 4.0 0.00 0.01 0.01 60 1017.1
20191023092804 71 125 2.0 4.0 0.00 0.01 0.01 60 1017.1
20191023092703 71 127 3.0 4.0 0.00 0.01 0.01 60 1017.2
20191023092604 71 127 4.0 4.0 0.00 0.01 0.01 60 1017.0
20191023092504 71 130 1.0 4.0 0.00 0.01 0.01 60 1017.3
20191023092404 71 133 2.0 4.0 0.00 0.01 0.01 60 1017.1
20191023092305 71 136 3.0 4.0 0.00 0.01 0.01 60 1017.2
20191023092204 71 133 3.0 4.0 0.00 0.01 0.01 60 1017.1
20191023092104 71 128 2.0 4.0 0.00 0.01 0.01 58 1017.2
20191023092005 71 131 2.0 4.0 0.00 0.01 0.01 58 1017.2
20191023091904 72 132 2.0 4.0 0.00 0.01 0.01 58 1017.1
20191023091804 72 129 2.0 4.0 0.00 0.01 0.01 58 1017.2
20191023091704 72 126 3.0 4.0 0.00 0.01 0.01 59 1017.1
20191023091604 72 125 2.0 4.0 0.00 0.01 0.01 59 1017.1
20191023091508 72 121 2.0 4.0 0.00 0.01 0.01 59 1017.1
20191023091404 72 117 2.0 4.0 0.00 0.01 0.01 59 1017.2
20191023091304 72 113 4.0 4.0 0.00 0.01 0.01 58 1017.1
20191023091204 72 108 4.0 4.0 0.00 0.01 0.01 59 1017.1
20191023091104 72 103 3.0 3.0 0.00 0.01 0.01 58 1017.2
20191023091004 71 99 1.0 3.0 0.00 0.01 0.01 58 1017.1
20191023090904 72 96 2.0 3.0 0.00 0.01 0.01 56 1017.2
20191023090804 72 99 2.0 3.0 0.00 0.01 0.01 56 1017.1
20191023090704 72 95 2.0 3.0 0.00 0.01 0.01 57 1017.1
20191023090604 72 91 2.0 3.0 0.00 0.01 0.01 56 1017.1
20191023090504 72 90 2.0 3.0 0.00 0.01 0.01 55 1017.0
20191023090404 72 90 2.0 3.0 0.00 0.01 0.01 55 1017.1
20191023090304 72 94 2.0 3.0 0.00 0.01 0.01 52 1017.1
20191023090203 73 0 0.0 3.0 0.00 0.01 0.01 52 1017.0
20191023090104 73 0 0.0 3.0 0.00 0.01 0.01 52 1017.0
20191023090003 73 0 0.0 3.0 0.00 0.01 0.01 52 1017.0
20191023085904 74 107 2.0 3.0 0.00 0.01 0.01 52 1017.1
20191023085803 74 114 2.0 3.0 0.00 0.01 0.01 51 1017.1
20191023085704 74 124 1.0 3.0 0.00 0.01 0.01 51 1017.2
20191023085603 74 133 1.0 3.0 0.00 0.01 0.01 51 1017.2
20191023085504 74 143 2.0 3.0 0.00 0.01 0.01 52 1017.0
20191023085403 74 152 2.0 3.0 0.00 0.01 0.01 53 1017.1
20191023085305 74 0 0.0 3.0 0.00 0.01 0.01 54 1017.1
20191023085203 74 0 0.0 3.0 0.00 0.01 0.01 54 1017.0
20191023085103 73 159 1.0 3.0 0.00 0.01 0.01 53 1017.1
20191023085003 73 162 1.0 3.0 0.00 0.01 0.01 53 1017.0
20191023084903 73 163 2.0 4.0 0.00 0.01 0.01 53 1017.1
20191023084804 73 163 2.0 4.0 0.00 0.01 0.01 53 1017.1
20191023084703 73 165 1.0 4.0 0.00 0.01 0.01 54 1017.1
20191023084603 73 166 2.0 4.0 0.00 0.01 0.01 52 1017.1
20191023084503 74 165 2.0 4.0 0.00 0.01 0.01 51 1016.9
20191023084403 74 167 2.0 4.0 0.00 0.01 0.01 51 1017.0
20191023084303 74 168 2.0 4.0 0.00 0.01 0.01 50 1017.0
20191023084203 75 167 2.0 4.0 0.00 0.01 0.01 50 1017.1
20191023084103 76 163 2.0 4.0 0.00 0.01 0.01 49 1017.1
20191023084003 76 163 2.0 4.0 0.00 0.01 0.01 48 1017.0
20191023083903 77 161 2.0 4.0 0.00 0.01 0.01 47 1017.0
20191023083804 77 162 2.0 3.0 0.00 0.01 0.01 46 1017.2
20191023083704 78 160 2.0 3.0 0.00 0.01 0.01 46 1017.0
20191023083603 78 156 2.0 3.0 0.00 0.01 0.01 46 1016.9
20191023083503 78 155 1.0 2.0 0.00 0.01 0.01 48 1016.9
20191023083403 78 0 0.0 2.0 0.00 0.01 0.01 48 1017.1
20191023083303 78 156 1.0 2.0 0.00 0.01 0.01 48 1017.1
20191023083203 78 158 1.0 2.0 0.00 0.01 0.01 48 1017.1
20191023083104 78 165 2.0 2.0 0.00 0.01 0.01 49 1016.9
20191023083005 78 163 2.0 2.0 0.00 0.01 0.01 51 1017.1
20191023082905 77 0 0.0 2.0 0.00 0.01 0.01 52 1017.2
20191023082804 77 0 0.0 2.0 0.00 0.01 0.01 52 1017.0
20191023082704 76 0 0.0 2.0 0.00 0.01 0.01 51 1017.0
20191023082604 76 0 0.0 2.0 0.00 0.01 0.01 51 1017.0
20191023082504 76 151 1.0 2.0 0.00 0.01 0.01 50 1017.1
20191023082404 76 150 1.0 2.0 0.00 0.01 0.01 50 1017.1
20191023082305 76 150 2.0 2.0 0.00 0.01 0.01 50 1017.1
20191023082204 76 153 1.0 2.0 0.00 0.01 0.01 50 1017.1
20191023082103 77 148 2.0 2.0 0.00 0.01 0.01 50 1017.0
20191023082004 77 150 2.0 2.0 0.00 0.01 0.01 50 1017.0
20191023081904 77 154 2.0 2.0 0.00 0.01 0.01 51 1017.0
20191023081804 77 151 1.0 2.0 0.00 0.01 0.01 51 1017.0
20191023081703 77 156 1.0 2.0 0.00 0.01 0.01 51 1017.0
20191023081603 77 161 2.0 2.0 0.00 0.01 0.01 52 1017.1
20191023081503 77 165 1.0 2.0 0.00 0.01 0.01 52 1017.0
20191023081404 77 164 1.0 2.0 0.00 0.01 0.01 52 1017.1
20191023081303 77 165 1.0 2.0 0.00 0.01 0.01 53 1017.2
20191023081203 77 160 1.0 2.0 0.00 0.01 0.01 54 1017.1
20191023081103 77 0 0.0 2.0 0.00 0.01 0.01 54 1017.1
20191023081003 76 0 0.0 2.0 0.00 0.01 0.01 54 1017.2
20191023080903 76 0 0.0 2.0 0.00 0.01 0.01 53 1017.1
20191023080803 76 0 0.0 2.0 0.00 0.01 0.01 53 1017.1
20191023080704 75 164 1.0 2.0 0.00 0.01 0.01 53 1017.1
20191023080604 75 0 0.0 2.0 0.00 0.01 0.01 54 1017.0
20191023080504 75 0 0.0 2.0 0.00 0.01 0.01 54 1017.1
20191023080404 75 158 2.0 2.0 0.00 0.01 0.01 55 1017.0
20191023080304 75 159 2.0 2.0 0.00 0.01 0.01 55 1017.1
20191023080204 74 0 0.0 2.0 0.00 0.01 0.01 59 1017.1
20191023080103 74 0 0.0 2.0 0.00 0.01 0.01 59 1017.0
20191023080004 74 0 0.0 2.0 0.00 0.01 0.01 59 1016.9
20191023075903 74 0 0.0 2.0 0.00 0.01 0.01 59 1017.1
20191023075803 74 0 0.0 2.0 0.00 0.01 0.01 60 1017.1
20191023075703 73 137 1.0 2.0 0.00 0.01 0.01 60 1017.1
20191023075604 73 0 0.0 2.0 0.00 0.01 0.01 60 1017.1
20191023075503 73 0 0.0 2.0 0.00 0.01 0.01 59 1017.2
20191023075403 72 135 1.0 2.0 0.00 0.01 0.01 61 1017.0
20191023075306 72 137 1.0 2.0 0.00 0.01 0.01 61 1017.2
20191023075203 72 142 1.0 2.0 0.00 0.01 0.01 61 1017.1
20191023075103 72 147 1.0 2.0 0.00 0.01 0.01 61 1017.1
20191023075004 72 152 1.0 2.0 0.00 0.01 0.01 61 1017.1
20191023074903 72 0 0.0 2.0 0.00 0.01 0.01 62 1017.1
20191023074803 72 157 1.0 2.0 0.00 0.01 0.01 61 1017.0
20191023074704 72 158 1.0 2.0 0.00 0.01 0.01 61 1017.1
20191023074603 72 159 1.0 2.0 0.00 0.01 0.01 61 1017.1
20191023074503 72 165 1.0 2.0 0.00 0.01 0.01 61 1017.1
20191023074403 72 167 1.0 2.0 0.00 0.01 0.01 61 1017.1
20191023074303 72 169 1.0 2.0 0.00 0.01 0.01 61 1017.2
20191023074203 72 164 2.0 2.0 0.00 0.01 0.01 61 1017.2
20191023074103 71 160 1.0 2.0 0.00 0.01 0.01 62 1017.1
20191023074003 71 0 0.0 2.0 0.00 0.01 0.01 63 1017.1
20191023073903 71 0 0.0 2.0 0.00 0.01 0.01 63 1017.1
20191023073803 71 0 0.0 2.0 0.00 0.01 0.01 62 1017.2
20191023073703 71 162 1.0 2.0 0.00 0.01 0.01 61 1017.2
20191023073603 71 165 2.0 2.0 0.00 0.01 0.01 61 1017.2
20191023073503 71 165 2.0 2.0 0.00 0.01 0.01 61 1017.2
20191023073403 71 168 2.0 2.0 0.00 0.01 0.01 61 1017.3
20191023073303 72 168 1.0 2.0 0.00 0.01 0.01 61 1017.2
20191023073203 72 173 2.0 2.0 0.00 0.01 0.01 61 1017.2
20191023073103 72 177 1.0 2.0 0.00 0.01 0.01 61 1017.2
20191023073003 72 180 1.0 2.0 0.00 0.01 0.01 62 1017.2
20191023072903 72 180 1.0 2.0 0.00 0.01 0.01 63 1017.2
20191023072803 72 0 0.0 2.0 0.00 0.01 0.01 64 1017.3
20191023072703 72 0 0.0 2.0 0.00 0.01 0.01 63 1017.3
20191023072603 72 0 0.0 2.0 0.00 0.01 0.01 63 1017.2
20191023072504 71 180 1.0 2.0 0.00 0.01 0.01 62 1017.1
20191023072403 71 0 0.0 2.0 0.00 0.01 0.01 62 1017.2
20191023072305 71 182 1.0 2.0 0.00 0.01 0.01 62 1017.3
20191023072203 72 182 1.0 2.0 0.00 0.01 0.01 63 1017.2
20191023072103 71 0 0.0 2.0 0.00 0.01 0.01 63 1017.2
20191023072003 71 183 1.0 2.0 0.00 0.01 0.01 63 1017.2
20191023071903 71 184 1.0 2.0 0.00 0.01 0.01 63 1017.2
20191023071803 71 184 1.0 2.0 0.00 0.01 0.01 64 1017.2
20191023071703 71 185 1.0 2.0 0.00 0.01 0.01 64 1017.2
20191023071603 71 187 1.0 2.0 0.00 0.01 0.01 65 1017.2
20191023071503 71 0 0.0 2.0 0.00 0.01 0.01 66 1017.3
20191023071403 71 201 1.0 2.0 0.00 0.01 0.01 68 1017.2
20191023071303 71 217 1.0 2.0 0.00 0.01 0.01 70 1017.1
20191023071203 71 236 1.0 2.0 0.00 0.01 0.01 71 1017.2
20191023071106 70 0 0.0 2.0 0.00 0.01 0.01 72 1017.1
20191023071003 70 256 1.0 2.0 0.00 0.01 0.01 73 1017.2
20191023070903 68 0 0.0 2.0 0.00 0.01 0.01 73 1017.3
20191023070803 68 0 0.0 2.0 0.00 0.01 0.01 73 1017.2
20191023070703 68 0 0.0 2.0 0.00 0.01 0.01 73 1017.2
20191023070603 67 0 0.0 2.0 0.00 0.01 0.01 72 1017.3
20191023070504 67 271 1.0 2.0 0.00 0.01 0.01 72 1017.2
20191023070403 66 272 1.0 2.0 0.00 0.01 0.01 71 1017.3
20191023070304 66 269 2.0 2.0 0.00 0.01 0.01 71 1017.2
20191023070204 66 269 2.0 2.0 0.00 0.01 0.01 71 1017.1
20191023070104 66 269 2.0 2.0 0.00 0.01 0.01 71 1017.2
20191023070004 66 269 2.0 2.0 0.00 0.01 0.01 71 1017.2
20191023065906 66 265 2.0 2.0 0.00 0.01 0.01 71 1017.3
20191023065804 66 259 2.0 2.0 0.00 0.01 0.01 72 1017.3
20191023065705 66 253 1.0 2.0 0.00 0.01 0.01 72 1017.3
20191023065604 66 245 2.0 2.0 0.00 0.01 0.01 72 1017.2
20191023065505 65 237 1.0 2.0 0.00 0.01 0.01 73 1017.2
20191023065405 65 232 1.0 2.0 0.00 0.01 0.01 74 1017.2
20191023065304 65 0 0.0 2.0 0.00 0.01 0.01 74 1017.3
20191023065204 64 221 1.0 2.0 0.00 0.01 0.01 74 1017.2
20191023065105 64 224 1.0 2.0 0.00 0.01 0.01 74 1017.2
20191023065005 64 215 1.0 2.0 0.00 0.01 0.01 75 1017.2
20191023064904 63 213 1.0 2.0 0.00 0.01 0.01 80 1017.3
20191023064804 63 225 1.0 2.0 0.00 0.01 0.01 81 1017.2
20191023064704 63 0 0.0 2.0 0.00 0.01 0.01 81 1017.3
20191023064604 63 0 0.0 2.0 0.00 0.01 0.01 81 1017.2
20191023064504 62 0 0.0 2.0 0.00 0.01 0.01 81 1017.2
20191023064404 62 267 1.0 2.0 0.00 0.01 0.01 81 1017.2
20191023064304 62 0 0.0 3.0 0.00 0.01 0.01 81 1017.2
20191023064206 62 0 0.0 3.0 0.00 0.01 0.01 81 1017.1
20191023064105 61 0 0.0 3.0 0.00 0.01 0.01 81 1017.3
20191023064004 61 0 0.0 3.0 0.00 0.01 0.01 81 1017.2
20191023063904 61 271 1.0 3.0 0.00 0.01 0.01 81 1017.4
20191023063804 61 269 2.0 3.0 0.00 0.01 0.01 81 1017.2
20191023063703 61 269 1.0 3.0 0.00 0.01 0.01 81 1017.3
20191023063605 61 272 1.0 3.0 0.00 0.01 0.01 81 1017.3
20191023063504 61 275 1.0 3.0 0.00 0.01 0.01 82 1017.4
20191023063405 61 275 2.0 3.0 0.00 0.01 0.01 82 1017.3
20191023063304 61 272 2.0 3.0 0.00 0.01 0.01 83 1017.2
20191023063204 60 270 2.0 3.0 0.00 0.01 0.01 84 1017.2
20191023063104 60 275 2.0 3.0 0.00 0.01 0.01 84 1017.3
20191023063004 60 276 1.0 3.0 0.00 0.01 0.01 84 1017.3
20191023062904 60 276 1.0 3.0 0.00 0.01 0.01 85 1017.2
20191023062804 59 276 2.0 3.0 0.00 0.01 0.01 85 1017.3
20191023062704 59 276 2.0 3.0 0.00 0.01 0.01 86 1017.2
20191023062604 59 273 2.0 3.0 0.00 0.01 0.01 86 1017.3
20191023062504 59 269 2.0 3.0 0.00 0.01 0.01 86 1017.2
20191023062404 58 269 2.0 3.0 0.00 0.01 0.01 86 1017.2
20191023062305 58 270 1.0 3.0 0.00 0.01 0.01 86 1017.2
20191023062204 58 277 1.0 3.0 0.00 0.01 0.01 86 1017.2
20191023062104 58 274 1.0 3.0 0.00 0.01 0.01 86 1017.1
20191023062004 57 273 2.0 3.0 0.00 0.01 0.01 86 1017.2
20191023061903 57 273 2.0 3.0 0.00 0.01 0.01 86 1017.2
20191023061804 57 273 2.0 3.0 0.00 0.01 0.01 86 1017.3
20191023061705 57 273 2.0 3.0 0.00 0.01 0.01 86 1017.3
20191023061604 57 273 2.0 3.0 0.00 0.01 0.01 86 1017.3
20191023061504 56 273 1.0 3.0 0.00 0.01 0.01 86 1017.3
20191023061404 56 273 2.0 3.0 0.00 0.01 0.01 86 1017.3
20191023061304 56 273 2.0 3.0 0.00 0.01 0.01 86 1017.3
20191023061204 56 270 2.0 3.0 0.00 0.01 0.01 85 1017.2
20191023061104 56 270 2.0 3.0 0.00 0.01 0.01 85 1017.1
20191023061004 56 270 2.0 3.0 0.00 0.01 0.01 85 1017.2
20191023060903 56 270 2.0 3.0 0.00 0.01 0.01 85 1017.1
20191023060804 56 270 2.0 3.0 0.00 0.01 0.01 85 1017.3
20191023060704 56 270 2.0 2.0 0.00 0.01 0.01 86 1017.2
20191023060604 56 270 2.0 2.0 0.00 0.01 0.01 86 1017.3
20191023060504 56 270 1.0 2.0 0.00 0.01 0.01 85 1017.1
20191023060404 56 270 1.0 4.0 0.00 0.01 0.01 85 1017.1
20191023060304 56 270 1.0 4.0 0.00 0.01 0.01 85 1017.1
20191023060204 56 270 1.0 4.0 0.00 0.01 0.01 85 1017.3
20191023060104 56 270 1.0 4.0 0.00 0.01 0.01 85 1017.2
20191023060005 56 270 1.0 4.0 0.00 0.01 0.01 85 1017.2
20191023055904 56 0 0.0 4.0 0.00 0.01 0.01 85 1017.1
20191023055804 56 0 0.0 4.0 0.00 0.01 0.01 85 1017.2
20191023055704 56 277 1.0 4.0 0.00 0.01 0.01 86 1017.1
20191023055604 56 279 1.0 4.0 0.00 0.01 0.01 86 1017.1
20191023055504 56 280 1.0 4.0 0.00 0.01 0.01 86 1017.2
20191023055404 56 282 2.0 4.0 0.00 0.01 0.01 86 1017.1
20191023055305 56 285 1.0 2.0 0.00 0.01 0.01 86 1017.1
20191023055204 56 288 1.0 2.0 0.00 0.01 0.01 86 1017.0
20191023055104 56 295 1.0 2.0 0.00 0.01 0.01 86 1017.0
20191023055004 56 293 1.0 3.0 0.00 0.01 0.01 86 1017.0
20191023054904 56 287 1.0 3.0 0.00 0.01 0.01 85 1017.0
20191023054804 56 285 1.0 3.0 0.00 0.01 0.01 85 1017.0
20191023054704 56 289 1.0 3.0 0.00 0.01 0.01 85 1016.9
20191023054604 56 0 0.0 3.0 0.00 0.01 0.01 85 1016.9
20191023054504 56 0 0.0 3.0 0.00 0.01 0.01 85 1016.9
20191023054404 56 0 0.0 3.0 0.00 0.01 0.01 85 1016.9
20191023054304 56 283 1.0 3.0 0.00 0.01 0.01 85 1016.8
20191023054204 56 278 1.0 3.0 0.00 0.01 0.01 85 1017.0
20191023054104 56 274 2.0 3.0 0.00 0.01 0.01 85 1016.9
20191023054004 56 274 2.0 3.0 0.00 0.01 0.01 84 1016.8
20191023053904 56 279 2.0 3.0 0.00 0.01 0.01 84 1016.8
20191023053804 56 277 1.0 3.0 0.00 0.01 0.01 84 1016.8
20191023053704 56 273 1.0 3.0 0.00 0.01 0.01 84 1016.8
20191023053604 56 270 2.0 3.0 0.00 0.01 0.01 84 1016.8
20191023053504 56 270 2.0 3.0 0.00 0.01 0.01 84 1016.9
20191023053404 57 270 2.0 3.0 0.00 0.01 0.01 84 1016.8
20191023053304 57 272 2.0 2.0 0.00 0.01 0.01 84 1016.8
20191023053204 57 0 0.0 2.0 0.00 0.01 0.01 84 1016.7
20191023053104 57 282 1.0 2.0 0.00 0.01 0.01 85 1016.7
20191023053005 57 281 1.0 2.0 0.00 0.01 0.01 85 1016.8
20191023052904 57 277 2.0 2.0 0.00 0.01 0.01 85 1016.7
20191023052804 57 278 1.0 2.0 0.00 0.01 0.01 85 1016.8
20191023052704 57 280 1.0 2.0 0.00 0.01 0.01 85 1016.9
20191023052604 57 282 1.0 2.0 0.00 0.01 0.01 85 1016.8
20191023052504 57 287 2.0 2.0 0.00 0.01 0.01 85 1016.6
20191023052405 57 293 1.0 2.0 0.00 0.01 0.01 86 1016.7
20191023052304 57 295 2.0 3.0 0.00 0.01 0.01 86 1016.8
20191023052204 57 288 2.0 3.0 0.00 0.01 0.01 86 1016.8
20191023052104 57 286 2.0 3.0 0.00 0.01 0.01 86 1016.8
20191023052004 57 285 2.0 3.0 0.00 0.01 0.01 86 1016.8
20191023051904 57 284 1.0 3.0 0.00 0.01 0.01 86 1016.9
20191023051804 57 284 1.0 3.0 0.00 0.01 0.01 86 1016.8
20191023051704 57 0 0.0 3.0 0.00 0.01 0.01 86 1016.8
20191023051604 57 281 1.0 3.0 0.00 0.01 0.01 86 1017.0
20191023051504 57 278 1.0 3.0 0.00 0.01 0.01 86 1016.7
20191023051404 57 276 1.0 3.0 0.00 0.01 0.01 86 1017.0
20191023051304 57 276 2.0 3.0 0.00 0.01 0.01 86 1016.8
20191023051206 57 279 2.0 3.0 0.00 0.01 0.01 87 1016.8
20191023051104 57 284 2.0 3.0 0.00 0.01 0.01 87 1017.0
20191023051004 57 288 2.0 3.0 0.00 0.01 0.01 87 1016.8
20191023050904 57 288 2.0 2.0 0.00 0.01 0.01 87 1016.8
20191023050804 57 288 1.0 2.0 0.00 0.01 0.01 87 1016.9
20191023050705 57 288 1.0 2.0 0.00 0.01 0.01 88 1016.7
20191023050605 57 289 1.0 2.0 0.00 0.01 0.01 88 1016.8
20191023050505 57 290 1.0 2.0 0.00 0.01 0.01 88 1016.8
20191023050405 57 293 1.0 2.0 0.00 0.01 0.01 88 1016.8
20191023050304 57 291 2.0 2.0 0.00 0.01 0.01 88 1016.9
20191023050204 57 290 2.0 2.0 0.00 0.01 0.01 88 1016.8
20191023050104 57 284 2.0 2.0 0.00 0.01 0.01 88 1017.0
20191023050004 57 283 1.0 2.0 0.00 0.01 0.01 88 1016.8
20191023045904 57 284 2.0 2.0 0.00 0.01 0.01 89 1016.9
20191023045804 57 287 2.0 2.0 0.00 0.01 0.01 89 1016.8
20191023045704 57 287 1.0 2.0 0.00 0.01 0.01 89 1016.8
20191023045604 57 286 1.0 2.0 0.00 0.01 0.01 89 1017.0
20191023045504 57 287 2.0 2.0 0.00 0.01 0.01 89 1017.0
20191023045404 57 287 1.0 2.0 0.00 0.01 0.01 89 1016.9
20191023045304 57 0 0.0 2.0 0.00 0.01 0.01 90 1016.8
20191023045204 57 290 2.0 3.0 0.00 0.01 0.01 90 1016.9
20191023045105 57 290 1.0 3.0 0.00 0.01 0.01 90 1016.9
20191023045004 57 290 1.0 3.0 0.00 0.01 0.01 90 1017.0
20191023044904 57 290 1.0 3.0 0.00 0.01 0.01 90 1016.9
20191023044804 57 289 1.0 3.0 0.00 0.01 0.01 90 1017.0
20191023044704 57 291 2.0 3.0 0.00 0.01 0.01 90 1016.9
20191023044603 57 294 2.0 3.0 0.00 0.01 0.01 90 1016.9
20191023044504 56 294 1.0 3.0 0.00 0.01 0.01 90 1016.9
20191023044404 56 289 1.0 3.0 0.00 0.01 0.01 90 1017.0
20191023044303 56 283 2.0 3.0 0.00 0.01 0.01 90 1016.8
20191023044204 56 284 2.0 3.0 0.00 0.01 0.01 90 1016.9
20191023044104 57 0 0.0 2.0 0.00 0.01 0.01 90 1017.0
20191023044004 57 0 0.0 2.0 0.00 0.01 0.01 90 1016.8
20191023043903 57 0 0.0 2.0 0.00 0.01 0.01 90 1016.9
20191023043804 57 286 1.0 2.0 0.00 0.01 0.01 90 1016.9
20191023043704 56 285 2.0 2.0 0.00 0.01 0.01 90 1016.9
20191023043604 56 279 1.0 2.0 0.00 0.01 0.01 90 1016.9
20191023043503 56 273 1.0 2.0 0.00 0.01 0.01 89 1017.0
20191023043404 56 274 1.0 2.0 0.00 0.01 0.01 89 1017.0
20191023043304 56 275 1.0 2.0 0.00 0.01 0.01 89 1017.0
20191023043204 56 270 1.0 2.0 0.00 0.01 0.01 89 1017.0
20191023043104 56 270 1.0 2.0 0.00 0.01 0.01 89 1017.0
20191023043004 56 0 0.0 2.0 0.00 0.01 0.01 89 1016.9
20191023042904 56 0 0.0 2.0 0.00 0.01 0.01 89 1016.9
20191023042804 56 0 0.0 2.0 0.00 0.01 0.01 89 1016.9
20191023042703 56 0 0.0 2.0 0.00 0.01 0.01 90 1016.9
20191023042604 56 0 0.0 2.0 0.00 0.01 0.01 90 1017.1
20191023042504 57 0 0.0 2.0 0.00 0.01 0.01 90 1017.0
20191023042404 57 0 0.0 2.0 0.00 0.01 0.01 90 1017.0
20191023042304 57 0 0.0 2.0 0.00 0.01 0.01 90 1017.1
20191023042204 57 0 0.0 2.0 0.00 0.01 0.01 90 1017.1
20191023042104 57 270 1.0 2.0 0.00 0.01 0.01 90 1017.1
20191023042004 57 273 1.0 2.0 0.00 0.01 0.01 90 1017.1
20191023041903 57 278 1.0 2.0 0.00 0.01 0.01 90 1017.0
20191023041804 57 283 1.0 2.0 0.00 0.01 0.01 90 1017.2
20191023041704 57 0 0.0 2.0 0.00 0.01 0.01 90 1017.1
20191023041604 57 0 0.0 2.0 0.00 0.01 0.01 90 1017.0
20191023041504 57 0 0.0 2.0 0.00 0.01 0.01 90 1017.0
20191023041404 57 0 0.0 2.0 0.00 0.01 0.01 90 1016.9
20191023041303 57 285 1.0 2.0 0.00 0.01 0.01 90 1016.9
20191023041204 57 288 2.0 2.0 0.00 0.01 0.01 90 1016.9
20191023041103 57 293 1.0 2.0 0.00 0.01 0.01 89 1017.1
20191023041004 57 294 1.0 2.0 0.00 0.01 0.01 89 1016.9
20191023040904 56 285 1.0 2.0 0.00 0.01 0.01 89 1017.1
20191023040803 56 270 1.0 2.0 0.00 0.01 0.01 89 1017.0
20191023040703 56 270 1.0 2.0 0.00 0.01 0.01 89 1017.1